FW4770 Weather Reports


time (UTC)temp
F
wind
direction
speed
knots
gust
knots
rain 1hr
in
rain 24hr
in
rain mn
in
humidity
%
barometer
mb
20260903220507 85 254 5.2 12.2 0.00 0.00 0.00 73 1009.2
20260903220412 85 231 6.1 12.2 0.00 0.00 0.00 74 1009.2
20260903220317 85 234 7.0 12.2 0.00 0.00 0.00 73 1009.2
20260903220221 85 219 6.1 10.4 0.00 0.00 0.00 74 1009.1
20260903220057 85 241 7.0 11.3 0.00 0.00 0.00 74 1009.1
20260903220023 84 242 7.0 11.3 0.00 0.00 0.00 73 1009.0
20260903215910 84 213 5.2 11.3 0.00 0.00 0.00 74 1009.0
20260903215755 84 220 5.2 14.8 0.00 0.00 0.00 74 1009.0
20260903215700 84 218 7.0 14.8 0.00 0.00 0.00 73 1009.1
20260903215604 84 265 7.8 14.8 0.00 0.00 0.00 73 1009.0
20260903215510 84 257 7.8 15.6 0.00 0.00 0.00 73 1009.0
20260903215414 84 223 7.8 15.6 0.00 0.00 0.00 74 1009.1
20260903215306 84 221 8.7 15.6 0.00 0.00 0.00 74 1009.0
20260903215207 84 212 8.7 15.6 0.00 0.00 0.00 74 1009.1
20260903215111 84 230 8.7 15.6 0.00 0.00 0.00 74 1009.1
20260903215036 84 228 9.6 15.6 0.00 0.00 0.00 74 1009.1
20260903214859 84 223 10.4 15.6 0.00 0.00 0.00 74 1009.1
20260903214804 84 219 11.3 15.6 0.00 0.00 0.00 74 1009.1
20260903214729 84 217 11.3 15.6 0.00 0.00 0.00 74 1009.1
20260903214556 84 244 7.8 13.0 0.00 0.00 0.00 75 1009.2
20260903214501 83 210 7.8 13.0 0.00 0.00 0.00 76 1009.1
20260903214405 83 224 8.7 13.0 0.00 0.00 0.00 75 1009.1
20260903214309 83 212 8.7 13.0 0.00 0.00 0.00 75 1009.1
20260903214214 83 203 8.7 13.0 0.00 0.00 0.00 75 1009.1
20260903214057 83 205 8.7 13.0 0.00 0.00 0.00 75 1009.1
20260903214007 83 227 8.7 13.0 0.00 0.00 0.00 75 1009.2
20260903213911 83 227 9.6 13.0 0.00 0.00 0.00 75 1009.2
20260903213836 83 240 7.8 13.9 0.00 0.00 0.00 76 1009.1
20260903213737 83 224 7.0 13.9 0.00 0.00 0.00 76 1009.2
20260903213641 83 224 7.0 13.9 0.00 0.00 0.00 76 1009.2
20260903213458 82 209 7.0 13.9 0.00 0.00 0.00 76 1009.3
20260903213422 82 251 7.0 13.9 0.00 0.00 0.00 76 1009.4
20260903213326 82 225 7.8 13.9 0.00 0.00 0.00 77 1009.3
20260903213229 82 223 8.7 13.9 0.00 0.00 0.00 76 1009.3
20260903213057 82 234 7.8 13.9 0.00 0.00 0.00 77 1009.3
20260903213002 82 216 7.8 13.9 0.00 0.00 0.00 76 1009.3
20260903212906 82 215 7.0 13.0 0.00 0.00 0.00 77 1009.3
20260903212810 81 198 7.8 13.0 0.00 0.00 0.00 76 1009.3
20260903212655 81 234 8.7 13.0 0.00 0.00 0.00 77 1009.3
20260903212604 81 221 7.8 13.0 0.00 0.00 0.00 77 1009.3
20260903212509 81 220 7.0 13.0 0.00 0.00 0.00 77 1009.3
20260903212414 81 221 7.0 13.0 0.00 0.00 0.00 77 1009.4
20260903212259 81 234 8.7 13.0 0.00 0.00 0.00 77 1009.4
20260903212204 81 212 8.7 13.0 0.00 0.00 0.00 76 1009.4
20260903212109 81 221 8.7 13.0 0.00 0.00 0.00 77 1009.4
20260903212018 81 239 7.8 13.0 0.00 0.00 0.00 76 1009.4
20260903211856 81 242 7.8 13.0 0.00 0.00 0.00 76 1009.4
20260903211801 81 241 7.8 13.0 0.00 0.00 0.00 76 1009.4
20260903211727 81 225 7.8 13.0 0.00 0.00 0.00 76 1009.5
20260903211610 81 210 7.8 13.0 0.00 0.00 0.00 76 1009.5
20260903211455 81 228 8.7 13.0 0.00 0.00 0.00 76 1009.5
20260903211404 81 234 8.7 13.0 0.00 0.00 0.00 76 1009.5
20260903211309 81 222 7.8 13.0 0.00 0.00 0.00 76 1009.5
20260903211214 81 223 8.7 15.6 0.00 0.00 0.00 76 1009.5
20260903211139 81 238 9.6 15.6 0.00 0.00 0.00 76 1009.5
20260903210956 81 225 7.8 15.6 0.00 0.00 0.00 77 1009.5
20260903210900 81 208 7.0 15.6 0.00 0.00 0.00 77 1009.4
20260903210805 81 214 7.8 15.6 0.00 0.00 0.00 77 1009.4
20260903210714 81 229 7.8 15.6 0.00 0.00 0.00 77 1009.4
20260903210619 81 219 7.8 15.6 0.00 0.00 0.00 76 1009.4
20260903210456 81 194 8.7 15.6 0.00 0.00 0.00 76 1009.5
20260903210401 81 207 7.8 14.8 0.00 0.00 0.00 77 1009.6
20260903210306 81 188 7.8 13.9 0.00 0.00 0.00 76 1009.5
20260903210231 81 227 7.8 13.9 0.00 0.00 0.00 76 1009.5
20260903210120 81 208 8.7 13.9 0.00 0.00 0.00 76 1009.6
20260903210023 81 209 8.7 13.9 0.00 0.00 0.00 76 1009.6
20260903205908 81 231 8.7 13.9 0.00 0.00 0.00 76 1009.6
20260903205813 81 213 8.7 13.9 0.00 0.00 0.00 76 1009.7
20260903205656 81 214 7.8 13.9 0.00 0.00 0.00 76 1009.6
20260903205601 81 221 7.8 13.9 0.00 0.00 0.00 76 1009.6
20260903205506 81 213 8.7 13.9 0.00 0.00 0.00 76 1009.7
20260903205355 81 244 8.7 13.9 0.00 0.00 0.00 76 1009.7
20260903205301 81 225 7.8 13.9 0.00 0.00 0.00 77 1009.7
20260903205205 81 194 8.7 13.9 0.00 0.00 0.00 76 1009.7
20260903205110 81 219 10.4 13.9 0.00 0.00 0.00 76 1009.7
20260903205034 81 201 9.6 14.8 0.00 0.00 0.00 75 1009.7
20260903204917 81 205 7.8 14.8 0.00 0.00 0.00 75 1009.7
20260903204821 81 211 7.8 14.8 0.00 0.00 0.00 75 1009.7
20260903204709 81 240 7.8 14.8 0.00 0.00 0.00 75 1009.7
20260903204614 81 205 8.7 14.8 0.00 0.00 0.00 75 1009.7
20260903204459 81 220 10.4 14.8 0.00 0.00 0.00 74 1009.7
20260903204424 82 209 10.4 14.8 0.00 0.00 0.00 74 1009.7
20260903204308 82 227 8.7 14.8 0.00 0.00 0.00 74 1009.7
20260903204233 82 223 8.7 13.9 0.00 0.00 0.00 74 1009.7
20260903204117 82 200 7.8 13.0 0.00 0.00 0.00 74 1009.8
20260903204005 82 238 7.0 13.0 0.00 0.00 0.00 75 1009.8
20260903203910 82 234 7.8 13.0 0.00 0.00 0.00 74 1009.8
20260903203756 82 223 8.7 13.0 0.00 0.00 0.00 73 1009.8
20260903203720 82 221 7.0 12.2 0.00 0.00 0.00 74 1009.8
20260903203603 82 232 5.2 8.7 0.00 0.00 0.00 74 1009.8
20260903203508 82 228 5.2 8.7 0.00 0.00 0.00 75 1009.8
20260903203357 82 232 4.3 11.3 0.00 0.00 0.00 74 1009.9
20260903203302 82 227 5.2 11.3 0.00 0.00 0.00 74 1009.9
20260903203207 82 236 7.0 11.3 0.00 0.00 0.00 73 1009.9
20260903203112 82 206 7.8 11.3 0.00 0.00 0.00 74 1009.9
20260903202958 82 240 6.1 11.3 0.00 0.00 0.00 74 1010.0
20260903202902 82 244 6.1 11.3 0.00 0.00 0.00 73 1010.0
20260903202810 82 273 7.8 11.3 0.00 0.00 0.00 73 1010.0
20260903202655 82 222 8.7 11.3 0.00 0.00 0.00 73 1010.1
20260903202600 82 192 7.0 9.6 0.00 0.00 0.00 73 1010.2
20260903202505 83 203 6.1 9.6 0.00 0.00 0.00 73 1010.1
20260903202410 82 207 6.1 9.6 0.00 0.00 0.00 73 1010.1
20260903202259 82 193 6.1 10.4 0.00 0.00 0.00 73 1010.2
20260903202224 82 202 5.2 9.6 0.00 0.00 0.00 73 1010.3
20260903202107 82 229 4.3 12.2 0.00 0.00 0.00 73 1010.3
20260903202032 82 221 5.2 12.2 0.00 0.00 0.00 73 1010.3
20260903201857 82 240 7.0 12.2 0.00 0.00 0.00 72 1010.2
20260903201801 82 243 7.0 12.2 0.00 0.00 0.00 73 1010.2
20260903201726 82 184 7.0 12.2 0.00 0.00 0.00 72 1010.2
20260903201609 82 208 6.1 12.2 0.00 0.00 0.00 73 1010.2
20260903201518 82 219 5.2 12.2 0.00 0.00 0.00 73 1010.1
20260903201356 82 206 7.8 12.2 0.00 0.00 0.00 73 1010.2
20260903201300 82 227 8.7 12.2 0.00 0.00 0.00 72 1010.2
20260903201206 82 189 8.7 11.3 0.00 0.00 0.00 71 1010.3
20260903201109 82 190 7.8 12.2 0.00 0.00 0.00 71 1010.3
20260903200959 82 186 7.0 10.4 0.00 0.00 0.00 72 1010.2
20260903200904 82 221 7.0 10.4 0.00 0.00 0.00 72 1010.2
20260903200808 82 234 7.8 10.4 0.00 0.00 0.00 72 1010.2
20260903200713 83 227 8.7 12.2 0.00 0.00 0.00 71 1010.3
20260903200618 83 225 8.7 11.3 0.00 0.00 0.00 71 1010.3
20260903200456 83 221 7.8 11.3 0.00 0.00 0.00 71 1010.2
20260903200405 83 223 6.1 11.3 0.00 0.00 0.00 73 1010.2
20260903200309 83 202 7.0 11.3 0.00 0.00 0.00 72 1010.2
20260903200215 83 232 7.8 11.3 0.00 0.00 0.00 71 1010.1
20260903200059 83 234 7.0 11.3 0.00 0.00 0.00 71 1010.1
20260903200004 83 209 7.8 11.3 0.00 0.00 0.00 71 1010.1
20260903195909 83 213 8.7 11.3 0.00 0.00 0.00 71 1010.1
20260903195818 83 217 7.8 13.0 0.00 0.00 0.00 72 1010.1
20260903195656 83 252 7.0 13.0 0.00 0.00 0.00 71 1010.3
20260903195620 83 195 7.0 13.0 0.00 0.00 0.00 71 1010.3
20260903195504 83 233 7.8 13.0 0.00 0.00 0.00 71 1010.2
20260903195409 83 266 7.8 13.0 0.00 0.00 0.00 72 1010.2
20260903195314 83 214 7.8 13.0 0.00 0.00 0.00 71 1010.2
20260903195202 83 219 8.7 13.0 0.00 0.00 0.00 71 1010.2
20260903195107 83 212 7.8 13.0 0.00 0.00 0.00 71 1010.2
20260903195013 83 213 6.1 9.6 0.00 0.00 0.00 73 1010.2
20260903194917 83 236 5.2 10.4 0.00 0.00 0.00 73 1010.3
20260903194821 83 230 5.2 10.4 0.00 0.00 0.00 72 1010.4
20260903194725 83 238 6.1 10.4 0.00 0.00 0.00 71 1010.4
20260903194607 83 263 7.8 10.4 0.00 0.00 0.00 71 1010.5
20260903194455 83 273 6.1 10.4 0.00 0.00 0.00 71 1010.5
20260903194400 83 224 6.1 10.4 0.00 0.00 0.00 72 1010.6
20260903194304 83 215 6.1 13.0 0.00 0.00 0.00 74 1010.6
20260903194209 83 246 7.0 13.0 0.00 0.00 0.00 72 1010.6
20260903194115 83 244 7.0 13.0 0.00 0.00 0.00 72 1010.6
20260903193959 83 254 7.0 13.0 0.00 0.00 0.00 74 1010.7
20260903193908 83 264 7.0 13.0 0.00 0.00 0.00 73 1010.7
20260903193813 82 215 7.0 13.0 0.00 0.00 0.00 73 1010.6
20260903193718 82 240 7.0 13.0 0.00 0.00 0.00 73 1010.7
20260903193556 82 227 7.8 13.0 0.00 0.00 0.00 74 1010.6
20260903193501 82 223 7.0 13.0 0.00 0.00 0.00 74 1010.7
20260903193406 82 223 5.2 8.7 0.00 0.00 0.00 75 1010.7
20260903193315 82 213 4.3 8.7 0.00 0.00 0.00 75 1010.7
20260903193159 82 221 4.3 8.7 0.00 0.00 0.00 76 1010.6
20260903193103 82 231 6.1 8.7 0.00 0.00 0.00 75 1010.6
20260903193007 81 207 6.1 8.7 0.00 0.00 0.00 75 1010.6
20260903192912 81 253 5.2 8.7 0.00 0.00 0.00 76 1010.6
20260903192757 81 223 5.2 7.0 0.00 0.00 0.00 76 1010.5
20260903192726 81 208 5.2 7.0 0.00 0.00 0.00 78 1010.5
20260903192610 81 204 5.2 7.0 0.00 0.00 0.00 78 1010.5
20260903192534 81 209 4.3 7.0 0.00 0.00 0.00 78 1010.6
20260903192418 80 212 3.5 5.2 0.00 0.00 0.00 79 1010.7
20260903192306 80 221 3.5 5.2 0.00 0.00 0.00 79 1010.6
20260903192207 80 238 3.5 5.2 0.00 0.00 0.00 79 1010.6
20260903192112 80 239 2.6 5.2 0.00 0.00 0.00 80 1010.6
20260903192001 79 181 2.6 4.3 0.00 0.00 0.00 79 1010.6
20260903191906 79 179 3.5 4.3 0.00 0.00 0.00 79 1010.5
20260903191831 79 211 2.6 4.3 0.00 0.00 0.00 78 1010.5
20260903191655 79 211 2.6 4.3 0.00 0.00 0.00 79 1010.5
20260903191600 79 211 2.6 4.3 0.00 0.00 0.00 79 1010.5
20260903191505 79 205 2.6 4.3 0.00 0.00 0.00 79 1010.5
20260903191410 79 222 2.6 4.3 0.00 0.00 0.00 79 1010.5
20260903191318 79 225 2.6 4.3 0.00 0.00 0.00 79 1010.5
20260903191156 79 225 1.7 6.1 0.00 0.00 0.00 79 1010.6
20260903191120 79 225 1.7 6.1 0.00 0.00 0.00 79 1010.6
20260903190958 79 225 1.7 6.1 0.00 0.00 0.00 79 1010.6
20260903190902 79 224 2.6 6.1 0.00 0.00 0.00 79 1010.5
20260903190826 79 224 2.6 6.1 0.00 0.00 0.00 79 1010.5
20260903190715 79 250 2.6 6.1 0.00 0.00 0.00 78 1010.5
20260903190559 79 258 1.7 7.0 0.00 0.00 0.00 79 1010.6
20260903190503 79 259 2.6 7.0 0.00 0.00 0.00 78 1010.6
20260903190408 79 257 3.5 7.0 0.00 0.00 0.00 78 1010.6
20260903190313 79 252 2.6 7.0 0.00 0.00 0.00 79 1010.6
20260903190159 79 239 2.6 7.0 0.00 0.00 0.00 78 1010.6
20260903190107 79 240 2.6 7.0 0.00 0.00 0.00 79 1010.6
20260903190012 79 234 3.5 7.0 0.00 0.00 0.00 79 1010.5
20260903185917 79 225 3.5 7.0 0.00 0.00 0.00 78 1010.5
20260903185801 79 240 3.5 7.0 0.00 0.00 0.00 78 1010.5
20260903185702 79 236 3.5 7.0 0.00 0.00 0.00 78 1010.5
20260903185627 80 244 3.5 7.0 0.00 0.00 0.00 78 1010.4
20260903185511 80 225 3.5 7.0 0.00 0.00 0.00 78 1010.4
20260903185359 80 236 4.3 7.0 0.00 0.00 0.00 78 1010.5
20260903185306 80 247 4.3 7.0 0.00 0.00 0.00 77 1010.6
20260903185207 80 236 3.5 6.1 0.00 0.00 0.00 77 1010.6
20260903185131 80 216 3.5 7.8 0.00 0.00 0.00 77 1010.6
20260903184955 80 259 3.5 7.8 0.00 0.00 0.00 77 1010.6
20260903184900 80 251 4.3 8.7 0.00 0.00 0.00 77 1010.6
20260903184809 80 252 3.5 8.7 0.00 0.00 0.00 77 1010.6
20260903184714 80 225 3.5 8.7 0.00 0.00 0.00 78 1010.5
20260903184559 80 246 3.5 8.7 0.00 0.00 0.00 77 1010.6
20260903184504 80 230 4.3 8.7 0.00 0.00 0.00 76 1010.5
20260903184410 80 232 4.3 12.2 0.00 0.00 0.00 75 1010.5
20260903184259 81 252 4.3 12.2 0.00 0.00 0.00 75 1010.6
20260903184223 81 232 5.2 12.2 0.00 0.00 0.00 74 1010.6
20260903184127 81 252 5.2 12.2 0.00 0.00 0.00 74 1010.6
20260903184030 81 254 4.3 12.2 0.00 0.00 0.00 74 1010.6
20260903183915 82 229 4.3 13.0 0.00 0.00 0.00 73 1010.5
20260903183759 82 236 7.0 13.9 0.00 0.00 0.00 72 1010.6
20260903183705 82 253 7.8 13.9 0.00 0.00 0.00 70 1010.6
20260903183608 82 225 7.0 13.9 0.00 0.00 0.00 70 1010.5
20260903183535 83 256 6.1 13.9 0.00 0.00 0.00 71 1010.5
20260903183359 83 229 6.1 13.9 0.00 0.00 0.00 69 1010.7
20260903183323 83 227 7.0 13.9 0.00 0.00 0.00 68 1010.6
20260903183227 84 250 7.8 13.9 0.00 0.00 0.00 67 1010.6
20260903183110 84 241 8.7 13.9 0.00 0.00 0.00 66 1010.6
20260903182956 85 238 7.8 13.9 0.00 0.00 0.00 65 1010.5
20260903182900 85 254 7.8 13.9 0.00 0.00 0.00 65 1010.4
20260903182808 85 220 7.8 12.2 0.00 0.00 0.00 64 1010.4
20260903182713 85 242 8.7 12.2 0.00 0.00 0.00 64 1010.5
20260903182558 85 265 8.7 12.2 0.00 0.00 0.00 63 1010.4
20260903182503 85 240 8.7 12.2 0.00 0.00 0.00 63 1010.5
20260903182427 85 266 7.8 12.2 0.00 0.00 0.00 63 1010.6
20260903182330 86 271 7.8 14.8 0.00 0.00 0.00 62 1010.6
20260903182159 86 260 6.1 14.8 0.00 0.00 0.00 63 1010.6
20260903182103 86 268 5.2 15.6 0.00 0.00 0.00 62 1010.7
20260903182008 86 248 7.0 15.6 0.00 0.00 0.00 62 1010.7
20260903181932 86 264 7.8 15.6 0.00 0.00 0.00 62 1010.8
20260903181756 86 245 7.0 15.6 0.00 0.00 0.00 62 1010.7
20260903181700 87 245 7.0 15.6 0.00 0.00 0.00 62 1010.8
20260903181605 87 275 9.6 15.6 0.00 0.00 0.00 61 1010.7
20260903181514 87 279 10.4 15.6 0.00 0.00 0.00 61 1010.7
20260903181359 87 232 11.3 15.6 0.00 0.00 0.00 60 1010.7
20260903181303 87 221 8.7 13.9 0.00 0.00 0.00 59 1010.7
20260903181207 88 229 7.0 13.9 0.00 0.00 0.00 60 1010.7
20260903181132 88 249 7.8 13.9 0.00 0.00 0.00 60 1010.7
20260903180955 88 242 9.6 13.9 0.00 0.00 0.00 60 1010.6
20260903180904 88 242 10.4 13.9 0.00 0.00 0.00 60 1010.7
20260903180809 88 250 8.7 13.9 0.00 0.00 0.00 60 1010.7
20260903180734 88 234 7.0 13.9 0.00 0.00 0.00 62 1010.6
20260903180557 88 227 7.8 13.9 0.00 0.00 0.00 61 1010.6
20260903180502 87 227 7.8 13.9 0.00 0.00 0.00 60 1010.6
20260903180405 87 229 7.0 13.9 0.00 0.00 0.00 61 1010.6
20260903180310 87 244 8.7 13.9 0.00 0.00 0.00 60 1010.6
20260903180159 87 234 9.6 13.9 0.00 0.00 0.00 60 1010.7
20260903180105 87 220 9.6 13.0 0.00 0.00 0.00 60 1010.7
20260903180029 87 231 8.7 13.0 0.00 0.00 0.00 60 1010.7
20260903175912 87 223 8.7 13.0 0.00 0.00 0.00 62 1010.7
20260903175757 87 235 7.8 13.0 0.00 0.00 0.00 61 1010.8
20260903175702 87 237 6.1 12.2 0.00 0.00 0.00 61 1010.8
20260903175611 87 229 7.8 12.2 0.00 0.00 0.00 60 1010.8
20260903175456 86 244 8.7 12.2 0.00 0.00 0.00 61 1010.8
20260903175401 86 238 7.8 10.4 0.00 0.00 0.00 61 1010.7
20260903175306 86 260 7.8 10.4 0.00 0.00 0.00 60 1010.8
20260903175211 86 214 7.0 10.4 0.00 0.00 0.00 61 1010.8
20260903175100 86 243 6.1 9.6 0.00 0.00 0.00 61 1010.7
20260903175005 86 223 5.2 9.6 0.00 0.00 0.00 62 1010.8
20260903174910 86 219 5.2 10.4 0.00 0.00 0.00 61 1010.8
20260903174815 86 239 5.2 10.4 0.00 0.00 0.00 61 1010.7
20260903174740 86 258 5.2 10.4 0.00 0.00 0.00 61 1010.7
20260903174557 86 225 7.8 10.4 0.00 0.00 0.00 62 1010.7
20260903174502 86 237 7.0 10.4 0.00 0.00 0.00 62 1010.7
20260903174411 86 242 7.0 10.4 0.00 0.00 0.00 62 1010.7
20260903174256 86 225 7.8 10.4 0.00 0.00 0.00 62 1010.7
20260903174222 86 238 7.0 10.4 0.00 0.00 0.00 62 1010.7
20260903174059 85 229 7.0 10.4 0.00 0.00 0.00 62 1010.8
20260903174004 85 247 7.0 12.2 0.00 0.00 0.00 61 1010.8
20260903173909 85 261 7.8 12.2 0.00 0.00 0.00 62 1010.8
20260903173839 85 261 6.1 12.2 0.00 0.00 0.00 63 1010.8
20260903173655 85 252 6.1 12.2 0.00 0.00 0.00 62 1010.8
20260903173600 85 257 7.0 12.2 0.00 0.00 0.00 62 1011.0
20260903173525 85 244 5.2 12.2 0.00 0.00 0.00 63 1010.9
20260903173410 85 257 7.0 12.2 0.00 0.00 0.00 63 1010.9
20260903173314 85 247 7.0 12.2 0.00 0.00 0.00 63 1010.9
20260903173203 85 254 7.0 10.4 0.00 0.00 0.00 64 1011.0
20260903173128 85 248 6.1 10.4 0.00 0.00 0.00 63 1011.1
20260903173011 85 259 6.1 10.4 0.00 0.00 0.00 62 1011.1
20260903172856 85 252 5.2 10.4 0.00 0.00 0.00 63 1011.1
20260903172801 85 272 5.2 10.4 0.00 0.00 0.00 65 1011.1
20260903172726 85 257 6.1 10.4 0.00 0.00 0.00 65 1011.1
20260903172610 85 212 5.2 10.4 0.00 0.00 0.00 65 1011.1
20260903172459 85 258 5.2 10.4 0.00 0.00 0.00 64 1011.1
20260903172404 85 234 6.1 10.4 0.00 0.00 0.00 65 1011.1
20260903172309 84 219 7.0 10.4 0.00 0.00 0.00 65 1011.1
20260903172214 84 227 7.0 10.4 0.00 0.00 0.00 64 1011.1
20260903172120 84 257 6.1 8.7 0.00 0.00 0.00 65 1011.1
20260903172024 84 213 6.1 8.7 0.00 0.00 0.00 64 1011.0
20260903171907 84 215 5.2 9.6 0.00 0.00 0.00 66 1011.0
20260903171835 84 259 5.2 8.7 0.00 0.00 0.00 66 1011.1
20260903171739 84 222 5.2 8.7 0.00 0.00 0.00 66 1011.2
20260903171556 84 223 5.2 8.7 0.00 0.00 0.00 65 1011.1
20260903171500 84 224 6.1 8.7 0.00 0.00 0.00 66 1011.2
20260903171406 84 286 6.1 9.6 0.00 0.00 0.00 66 1011.2
20260903171310 84 227 7.0 9.6 0.00 0.00 0.00 65 1011.2
20260903171159 84 223 7.0 9.6 0.00 0.00 0.00 65 1011.2
20260903171123 84 279 7.0 9.6 0.00 0.00 0.00 65 1011.2
20260903171027 84 245 6.1 8.7 0.00 0.00 0.00 65 1011.2
20260903170911 84 236 6.1 9.6 0.00 0.00 0.00 66 1011.2
20260903170816 84 229 7.0 9.6 0.00 0.00 0.00 65 1011.2
20260903170720 84 245 7.0 9.6 0.00 0.00 0.00 65 1011.3
20260903170604 84 247 7.0 9.6 0.00 0.00 0.00 64 1011.2
20260903170508 84 229 7.0 9.6 0.00 0.00 0.00 63 1011.2
20260903170418 84 211 7.0 8.7 0.00 0.00 0.00 64 1011.2
20260903170255 85 200 6.1 9.6 0.00 0.00 0.00 64 1011.2
20260903170221 85 229 7.0 9.6 0.00 0.00 0.00 64 1011.3
20260903170104 85 236 7.0 9.6 0.00 0.00 0.00 63 1011.3
20260903170010 85 243 7.0 9.6 0.00 0.00 0.00 63 1011.3
20260903165914 85 227 6.1 9.6 0.00 0.00 0.00 63 1011.3
20260903165802 85 259 6.1 9.6 0.00 0.00 0.00 64 1011.3
20260903165728 85 232 5.2 9.6 0.00 0.00 0.00 64 1011.3
20260903165631 85 216 4.3 9.6 0.00 0.00 0.00 65 1011.4
20260903165514 85 269 5.2 12.2 0.00 0.00 0.00 65 1011.4
20260903165358 85 239 6.1 12.2 0.00 0.00 0.00 64 1011.4
20260903165323 85 266 7.0 12.2 0.00 0.00 0.00 64 1011.4
20260903165228 85 254 6.1 12.2 0.00 0.00 0.00 65 1011.4
20260903165133 85 234 4.3 12.2 0.00 0.00 0.00 64 1011.4
20260903165000 84 238 4.3 12.2 0.00 0.00 0.00 65 1011.4
20260903164905 84 245 7.0 12.2 0.00 0.00 0.00 64 1011.4
20260903164830 84 215 7.0 12.2 0.00 0.00 0.00 63 1011.4
20260903164714 85 259 7.0 12.2 0.00 0.00 0.00 64 1011.5
20260903164559 85 235 7.8 12.2 0.00 0.00 0.00 64 1011.5
20260903164503 85 253 6.1 10.4 0.00 0.00 0.00 64 1011.4
20260903164406 85 281 6.1 8.7 0.00 0.00 0.00 64 1011.4
20260903164255 84 221 5.2 8.7 0.00 0.00 0.00 64 1011.4
20260903164200 84 218 5.2 8.7 0.00 0.00 0.00 65 1011.4
20260903164105 84 288 4.3 9.6 0.00 0.00 0.00 64 1011.4
20260903164010 84 274 3.5 9.6 0.00 0.00 0.00 64 1011.4
20260903163915 84 261 3.5 9.6 0.00 0.00 0.00 64 1011.4
20260903163803 84 277 5.2 9.6 0.00 0.00 0.00 65 1011.4
20260903163708 84 319 5.2 9.6 0.00 0.00 0.00 64 1011.4
20260903163613 84 252 6.1 9.6 0.00 0.00 0.00 64 1011.4
20260903163538 84 238 6.1 9.6 0.00 0.00 0.00 64 1011.4
20260903163355 84 254 7.0 12.2 0.00 0.00 0.00 64 1011.3
20260903163321 84 267 7.0 12.2 0.00 0.00 0.00 64 1011.3
20260903163159 84 250 7.0 12.2 0.00 0.00 0.00 63 1011.4
20260903163107 84 249 6.1 12.2 0.00 0.00 0.00 64 1011.4
20260903163011 84 252 6.1 12.2 0.00 0.00 0.00 64 1011.3
20260903162856 84 249 6.1 12.2 0.00 0.00 0.00 64 1011.4
20260903162801 84 236 7.0 12.2 0.00 0.00 0.00 64 1011.4
20260903162706 84 260 7.8 12.2 0.00 0.00 0.00 63 1011.4
20260903162631 84 225 7.8 12.2 0.00 0.00 0.00 63 1011.4
20260903162520 84 246 7.8 11.3 0.00 0.00 0.00 63 1011.4
20260903162357 84 222 7.0 11.3 0.00 0.00 0.00 64 1011.4
20260903162321 84 238 6.1 13.0 0.00 0.00 0.00 64 1011.4
20260903162204 84 227 5.2 13.0 0.00 0.00 0.00 64 1011.4
20260903162108 84 236 6.1 13.0 0.00 0.00 0.00 64 1011.4
20260903162033 84 222 7.8 13.0 0.00 0.00 0.00 64 1011.4
20260903161810 84 254 7.8 13.0 0.00 0.00 0.00 64 1011.4
20260903161720 84 252 7.8 13.0 0.00 0.00 0.00 64 1011.3
20260903161558 84 217 7.0 13.0 0.00 0.00 0.00 64 1011.3
20260903161502 84 234 7.8 13.0 0.00 0.00 0.00 64 1011.3
20260903161407 84 243 8.7 13.0 0.00 0.00 0.00 63 1011.3
20260903161312 84 244 7.8 13.0 0.00 0.00 0.00 64 1011.4
20260903161200 84 255 8.7 13.0 0.00 0.00 0.00 64 1011.4
20260903161105 84 254 8.7 12.2 0.00 0.00 0.00 65 1011.5
20260903161030 84 209 7.8 12.2 0.00 0.00 0.00 66 1011.5
20260903160934 84 259 8.7 12.2 0.00 0.00 0.00 65 1011.5
20260903160758 84 229 7.8 12.2 0.00 0.00 0.00 65 1011.4
20260903160703 84 232 7.8 12.2 0.00 0.00 0.00 67 1011.5
20260903160607 83 250 7.0 12.2 0.00 0.00 0.00 67 1011.5
20260903160531 83 238 6.1 12.2 0.00 0.00 0.00 68 1011.5
20260903160439 83 229 6.1 12.2 0.00 0.00 0.00 67 1011.6
20260903160255 83 262 7.0 12.2 0.00 0.00 0.00 67 1011.5
20260903160220 83 233 7.0 12.2 0.00 0.00 0.00 68 1011.5
20260903160058 83 222 7.8 12.2 0.00 0.00 0.00 68 1011.5
20260903160001 83 261 7.0 11.3 0.00 0.00 0.00 68 1011.6
20260903155906 83 261 6.1 11.3 0.00 0.00 0.00 68 1011.6
20260903155814 82 221 6.1 11.3 0.00 0.00 0.00 69 1011.6
20260903155719 82 265 7.0 11.3 0.00 0.00 0.00 69 1011.6
20260903155556 82 246 6.1 11.3 0.00 0.00 0.00 70 1011.5
20260903155520 82 285 4.3 7.8 0.00 0.00 0.00 71 1011.6
20260903155404 82 241 5.2 7.8 0.00 0.00 0.00 70 1011.5
20260903155329 82 246 6.1 7.8 0.00 0.00 0.00 69 1011.5
20260903155213 82 279 6.1 7.8 0.00 0.00 0.00 69 1011.4
20260903155103 82 263 5.2 7.8 0.00 0.00 0.00 70 1011.4
20260903155027 82 253 4.3 7.8 0.00 0.00 0.00 69 1011.5
20260903154910 82 250 3.5 8.7 0.00 0.00 0.00 70 1011.5
20260903154814 82 264 3.5 8.7 0.00 0.00 0.00 70 1011.4
20260903154740 82 262 4.3 8.7 0.00 0.00 0.00 70 1011.4
20260903154558 82 221 4.3 9.6 0.00 0.00 0.00 69 1011.4
20260903154502 82 250 5.2 9.6 0.00 0.00 0.00 69 1011.4
20260903154411 82 261 6.1 9.6 0.00 0.00 0.00 69 1011.4
20260903154336 82 275 6.1 9.6 0.00 0.00 0.00 69 1011.4
20260903154241 82 274 7.0 9.6 0.00 0.00 0.00 69 1011.4
20260903154057 82 242 7.0 9.6 0.00 0.00 0.00 68 1011.3
20260903154002 82 225 6.1 9.6 0.00 0.00 0.00 69 1011.2
20260903153907 82 205 7.0 9.6 0.00 0.00 0.00 67 1011.2
20260903153755 82 207 7.8 9.6 0.00 0.00 0.00 67 1011.4
20260903153700 83 234 7.8 10.4 0.00 0.00 0.00 68 1011.3
20260903153604 83 235 7.0 10.4 0.00 0.00 0.00 68 1011.3
20260903153509 83 254 6.1 10.4 0.00 0.00 0.00 69 1011.3
20260903153414 83 223 4.3 10.4 0.00 0.00 0.00 70 1011.4
20260903153258 82 209 4.3 10.4 0.00 0.00 0.00 69 1011.4
20260903153207 82 230 5.2 10.4 0.00 0.00 0.00 69 1011.4
20260903153111 82 245 5.2 10.4 0.00 0.00 0.00 70 1011.4
20260903152956 82 248 7.0 10.4 0.00 0.00 0.00 70 1011.3
20260903152901 82 231 6.1 10.4 0.00 0.00 0.00 69 1011.4
20260903152804 82 292 6.1 10.4 0.00 0.00 0.00 70 1011.4
20260903152709 82 306 5.2 10.4 0.00 0.00 0.00 71 1011.4
20260903152557 82 230 7.0 10.4 0.00 0.00 0.00 70 1011.4
20260903152522 82 236 7.0 10.4 0.00 0.00 0.00 70 1011.4
20260903152359 82 232 5.2 9.6 0.00 0.00 0.00 71 1011.5
20260903152306 82 231 4.3 8.7 0.00 0.00 0.00 72 1011.4
20260903152207 82 265 5.2 8.7 0.00 0.00 0.00 71 1011.4
20260903152112 82 224 6.1 8.7 0.00 0.00 0.00 71 1011.3
20260903152001 82 259 6.1 8.7 0.00 0.00 0.00 71 1011.3
20260903151906 82 236 6.1 8.7 0.00 0.00 0.00 71 1011.3
20260903151811 82 236 6.1 8.7 0.00 0.00 0.00 70 1011.4
20260903151656 81 218 5.2 8.7 0.00 0.00 0.00 71 1011.3
20260903151601 81 242 5.2 8.7 0.00 0.00 0.00 71 1011.3
20260903151505 81 284 6.1 8.7 0.00 0.00 0.00 72 1011.3
20260903151413 81 298 6.1 8.7 0.00 0.00 0.00 72 1011.3
20260903151318 81 274 6.1 8.7 0.00 0.00 0.00 72 1011.3
20260903151155 81 221 6.1 9.6 0.00 0.00 0.00 72 1011.3
20260903151059 81 221 6.1 9.6 0.00 0.00 0.00 73 1011.3
20260903151004 81 208 6.1 9.6 0.00 0.00 0.00 73 1011.3
20260903150908 80 235 7.0 9.6 0.00 0.00 0.00 72 1011.3
20260903150756 80 244 7.0 9.6 0.00 0.00 0.00 72 1011.3
20260903150701 80 230 5.2 9.6 0.00 0.00 0.00 73 1011.3
20260903150606 80 237 5.2 7.8 0.00 0.00 0.00 73 1011.3
20260903150512 80 246 5.2 7.8 0.00 0.00 0.00 73 1011.3
20260903150356 80 256 6.1 7.8 0.00 0.00 0.00 73 1011.3
20260903150321 80 234 5.2 7.8 0.00 0.00 0.00 75 1011.3
20260903150228 80 260 3.5 9.6 0.00 0.00 0.00 74 1011.2
20260903150111 80 255 3.5 9.6 0.00 0.00 0.00 75 1011.2
20260903150016 80 245 4.3 9.6 0.00 0.00 0.00 75 1011.3
20260903145921 80 240 5.2 9.6 0.00 0.00 0.00 75 1011.4
20260903145804 80 246 4.3 9.6 0.00 0.00 0.00 75 1011.4
20260903145709 79 232 4.3 9.6 0.00 0.00 0.00 75 1011.4
20260903145614 79 217 6.1 9.6 0.00 0.00 0.00 75 1011.4
20260903145523 79 217 7.0 9.6 0.00 0.00 0.00 75 1011.3
20260903145407 79 246 5.2 9.6 0.00 0.00 0.00 75 1011.3
20260903145312 79 242 3.5 8.7 0.00 0.00 0.00 76 1011.3
20260903145156 79 207 4.3 8.7 0.00 0.00 0.00 75 1011.3
20260903145101 79 242 5.2 8.7 0.00 0.00 0.00 75 1011.4
20260903145006 79 232 7.0 8.7 0.00 0.00 0.00 75 1011.4
20260903144855 79 246 7.0 8.7 0.00 0.00 0.00 75 1011.3
20260903144800 79 224 7.0 8.7 0.00 0.00 0.00 75 1011.3
20260903144705 79 219 5.2 8.7 0.00 0.00 0.00 75 1011.3
20260903144609 79 239 4.3 8.7 0.00 0.00 0.00 76 1011.3
20260903144513 79 239 4.3 8.7 0.00 0.00 0.00 76 1011.4
20260903144359 79 242 6.1 8.7 0.00 0.00 0.00 76 1011.4
20260903144307 79 249 6.1 8.7 0.00 0.00 0.00 76 1011.4
20260903144210 79 244 5.2 8.7 0.00 0.00 0.00 76 1011.3
20260903144115 79 225 5.2 8.7 0.00 0.00 0.00 77 1011.3
20260903144041 79 232 5.2 8.7 0.00 0.00 0.00 78 1011.4
20260903143857 78 205 4.3 8.7 0.00 0.00 0.00 78 1011.4
20260903143802 78 182 4.3 8.7 0.00 0.00 0.00 78 1011.4
20260903143707 78 217 5.2 8.7 0.00 0.00 0.00 78 1011.4
20260903143556 78 223 4.3 8.7 0.00 0.00 0.00 79 1011.4
20260903143520 78 227 3.5 8.7 0.00 0.00 0.00 80 1011.4
20260903143357 78 229 3.5 8.7 0.00 0.00 0.00 80 1011.4
20260903143302 77 259 4.3 8.7 0.00 0.00 0.00 81 1011.5
20260903143208 77 233 3.5 6.1 0.00 0.00 0.00 81 1011.5
20260903143056 77 246 3.5 6.1 0.00 0.00 0.00 82 1011.5
20260903143020 77 244 3.5 6.1 0.00 0.00 0.00 82 1011.5
20260903142857 77 230 5.2 6.1 0.00 0.00 0.00 82 1011.4
20260903142803 77 261 4.3 7.0 0.00 0.00 0.00 82 1011.5
20260903142707 77 236 3.5 7.0 0.00 0.00 0.00 83 1011.5
20260903142632 77 225 3.5 6.1 0.00 0.00 0.00 83 1011.4
20260903142456 77 224 3.5 6.1 0.00 0.00 0.00 83 1011.5
20260903142406 77 217 3.5 6.1 0.00 0.00 0.00 83 1011.6
20260903142330 77 217 4.3 6.1 0.00 0.00 0.00 83 1011.6
20260903142214 77 225 3.5 7.8 0.00 0.00 0.00 83 1011.5
20260903142141 77 232 2.6 7.8 0.00 0.00 0.00 84 1011.6
20260903141957 77 244 2.6 7.8 0.00 0.00 0.00 83 1011.6
20260903141922 77 244 3.5 7.8 0.00 0.00 0.00 84 1011.6
20260903141759 77 222 3.5 7.8 0.00 0.00 0.00 83 1011.5
20260903141708 77 211 3.5 7.8 0.00 0.00 0.00 83 1011.5
20260903141613 77 231 3.5 7.8 0.00 0.00 0.00 83 1011.6
20260903141518 77 232 4.3 7.8 0.00 0.00 0.00 83 1011.5
20260903141402 77 246 4.3 7.0 0.00 0.00 0.00 83 1011.5
20260903141327 77 219 4.3 7.0 0.00 0.00 0.00 83 1011.4
20260903141210 77 237 5.2 7.0 0.00 0.00 0.00 83 1011.4
20260903141134 77 209 5.2 7.0 0.00 0.00 0.00 83 1011.4
20260903141002 77 204 5.2 7.0 0.00 0.00 0.00 84 1011.5
20260903140927 77 221 5.2 7.0 0.00 0.00 0.00 84 1011.5
20260903140811 76 214 4.3 7.0 0.00 0.00 0.00 84 1011.5
20260903140716 76 215 4.3 7.0 0.00 0.00 0.00 85 1011.4
20260903140620 76 211 4.3 7.0 0.00 0.00 0.00 85 1011.4
20260903140456 76 215 3.5 6.1 0.00 0.00 0.00 85 1011.4
20260903140421 76 198 3.5 6.1 0.00 0.00 0.00 86 1011.4
20260903140324 76 192 4.3 6.1 0.00 0.00 0.00 85 1011.5
20260903140212 76 200 4.3 6.1 0.00 0.00 0.00 86 1011.5
20260903140138 76 194 4.3 6.1 0.00 0.00 0.00 86 1011.5
20260903135955 76 215 4.3 6.1 0.00 0.00 0.00 86 1011.5
20260903135920 75 210 4.3 6.1 0.00 0.00 0.00 86 1011.5
20260903135757 75 207 4.3 6.1 0.00 0.00 0.00 86 1011.6
20260903135702 75 194 4.3 6.1 0.00 0.00 0.00 86 1011.7
20260903135611 75 214 3.5 6.1 0.00 0.00 0.00 86 1011.7
20260903135536 75 229 4.3 6.1 0.00 0.00 0.00 87 1011.6
20260903135440 75 234 4.3 6.1 0.00 0.00 0.00 87 1011.7
20260903135257 75 205 4.3 6.1 0.00 0.00 0.00 87 1011.7
20260903135201 75 197 3.5 5.2 0.00 0.00 0.00 87 1011.6
20260903135106 75 184 4.3 6.1 0.00 0.00 0.00 88 1011.6
20260903135011 75 184 4.3 6.1 0.00 0.00 0.00 87 1011.7
20260903134920 75 176 4.3 6.1 0.00 0.00 0.00 88 1011.7
20260903134803 74 184 3.5 6.1 0.00 0.00 0.00 88 1011.7
20260903134709 74 213 3.5 6.1 0.00 0.00 0.00 88 1011.7
20260903134613 74 188 3.5 6.1 0.00 0.00 0.00 89 1011.8
20260903134518 74 190 4.3 6.1 0.00 0.00 0.00 89 1011.7
20260903134421 74 184 4.3 6.1 0.00 0.00 0.00 89 1011.7
20260903134259 74 190 3.5 7.0 0.00 0.00 0.00 89 1011.7
20260903134209 74 188 3.5 7.0 0.00 0.00 0.00 89 1011.7
20260903134113 74 178 3.5 7.0 0.00 0.00 0.00 89 1011.7
20260903133958 73 194 3.5 7.0 0.00 0.00 0.00 90 1011.7
20260903133923 73 198 3.5 7.0 0.00 0.00 0.00 90 1011.6
20260903133826 73 197 3.5 7.0 0.00 0.00 0.00 90 1011.7
20260903133710 73 197 4.3 7.0 0.00 0.00 0.00 90 1011.7
20260903133559 73 213 4.3 7.0 0.00 0.00 0.00 90 1011.6
20260903133505 73 175 3.5 7.0 0.00 0.00 0.00 91 1011.7
20260903133409 73 201 2.6 7.0 0.00 0.00 0.00 90 1011.7
20260903133312 72 201 3.5 7.0 0.00 0.00 0.00 90 1011.7
20260903133217 72 196 4.3 7.0 0.00 0.00 0.00 90 1011.7
20260903133121 72 199 4.3 7.0 0.00 0.00 0.00 90 1011.7
20260903133004 72 192 4.3 7.0 0.00 0.00 0.00 90 1011.7
20260903132908 72 192 4.3 7.0 0.00 0.00 0.00 90 1011.7
20260903132817 72 186 4.3 6.1 0.00 0.00 0.00 90 1011.7
20260903132655 72 184 4.3 6.1 0.00 0.00 0.00 90 1011.8
20260903132600 72 190 4.3 6.1 0.00 0.00 0.00 90 1011.8
20260903132505 72 183 4.3 5.2 0.00 0.00 0.00 90 1011.8
20260903132410 72 173 2.6 4.3 0.00 0.00 0.00 90 1011.8
20260903132335 72 172 1.7 5.2 0.00 0.00 0.00 90 1011.9
20260903132204 72 172 1.7 5.2 0.00 0.00 0.00 90 1011.9
20260903132108 72 172 2.6 5.2 0.00 0.00 0.00 90 1011.9
20260903132013 72 172 1.7 5.2 0.00 0.00 0.00 90 1011.9
20260903131918 72 165 3.5 5.2 0.00 0.00 0.00 90 1011.9
20260903131802 72 165 3.5 5.2 0.00 0.00 0.00 90 1011.9
20260903131726 72 161 2.6 5.2 0.00 0.00 0.00 90 1011.9
20260903131610 72 161 2.6 5.2 0.00 0.00 0.00 90 1011.9
20260903131517 72 162 2.6 5.2 0.00 0.00 0.00 90 1011.9
20260903131420 72 162 3.5 5.2 0.00 0.00 0.00 90 1011.9
20260903131257 72 160 3.5 5.2 0.00 0.00 0.00 90 1011.8
20260903131202 72 178 2.6 4.3 0.00 0.00 0.00 90 1011.8
20260903131107 72 182 2.6 4.3 0.00 0.00 0.00 90 1011.8
20260903131012 72 181 2.6 4.3 0.00 0.00 0.00 90 1011.9
20260903130902 72 181 2.6 4.3 0.00 0.00 0.00 90 1011.8
20260903130806 72 181 2.6 4.3 0.00 0.00 0.00 90 1011.8
20260903130711 72 181 2.6 4.3 0.00 0.00 0.00 90 1011.7
20260903130556 72 181 3.5 4.3 0.00 0.00 0.00 90 1011.7
20260903130500 72 188 3.5 4.3 0.00 0.00 0.00 90 1011.7
20260903130406 72 183 2.6 5.2 0.00 0.00 0.00 90 1011.7
20260903130313 72 159 1.7 5.2 0.00 0.00 0.00 90 1011.7
20260903130159 72 158 2.6 5.2 0.00 0.00 0.00 90 1011.7
20260903130007 72 173 2.6 5.2 0.00 0.00 0.00 90 1011.6
20260903125912 72 174 2.6 5.2 0.00 0.00 0.00 90 1011.7
20260903125800 71 173 1.7 5.2 0.00 0.00 0.00 90 1011.7
20260903125705 71 182 1.7 5.2 0.00 0.00 0.00 90 1011.7
20260903125611 71 182 2.6 5.2 0.00 0.00 0.00 90 1011.7
20260903125515 71 182 3.5 5.2 0.00 0.00 0.00 90 1011.7
20260903125417 71 183 2.6 5.2 0.00 0.00 0.00 90 1011.8
20260903125305 71 162 2.6 5.2 0.00 0.00 0.00 90 1011.8
20260903125226 71 161 3.5 5.2 0.00 0.00 0.00 90 1011.8
20260903125130 71 161 2.6 5.2 0.00 0.00 0.00 90 1011.8
20260903124958 71 163 1.7 5.2 0.00 0.00 0.00 90 1011.8
20260903124903 71 169 1.7 5.2 0.00 0.00 0.00 90 1011.8
20260903124803 71 169 2.6 5.2 0.00 0.00 0.00 90 1011.8
20260903124728 71 165 2.6 6.1 0.00 0.00 0.00 91 1011.8
20260903124611 71 165 3.5 7.0 0.00 0.00 0.00 91 1011.7
20260903124516 71 165 2.6 7.0 0.00 0.00 0.00 91 1011.8
20260903124405 71 178 2.6 7.0 0.00 0.00 0.00 91 1011.7
20260903124309 71 187 3.5 7.0 0.00 0.00 0.00 91 1011.7
20260903124214 71 185 3.5 7.0 0.00 0.00 0.00 90 1011.7
20260903124119 71 190 3.5 7.0 0.00 0.00 0.00 90 1011.7
20260903123956 71 175 4.3 7.0 0.00 0.00 0.00 90 1011.7
20260903123901 71 167 4.3 7.0 0.00 0.00 0.00 90 1011.7
20260903123826 71 180 4.3 7.0 0.00 0.00 0.00 90 1011.6
20260903123714 71 186 3.5 5.2 0.00 0.00 0.00 90 1011.6
20260903123618 71 185 3.5 5.2 0.00 0.00 0.00 90 1011.6
20260903123455 71 168 2.6 5.2 0.00 0.00 0.00 90 1011.5
20260903123400 71 162 2.6 5.2 0.00 0.00 0.00 90 1011.4
20260903123305 71 161 2.6 5.2 0.00 0.00 0.00 90 1011.4
20260903123210 71 161 2.6 5.2 0.00 0.00 0.00 91 1011.4
20260903123119 71 160 2.6 5.2 0.00 0.00 0.00 91 1011.4
20260903123003 71 160 2.6 5.2 0.00 0.00 0.00 91 1011.4
20260903122909 71 161 2.6 5.2 0.00 0.00 0.00 91 1011.4
20260903122813 71 163 2.6 5.2 0.00 0.00 0.00 91 1011.4
20260903122658 71 184 2.6 4.3 0.00 0.00 0.00 91 1011.5
20260903122603 71 184 2.6 4.3 0.00 0.00 0.00 91 1011.6
20260903122531 71 184 2.6 4.3 0.00 0.00 0.00 91 1011.6
20260903122414 71 172 1.7 4.3 0.00 0.00 0.00 91 1011.6
20260903122319 71 172 2.6 4.3 0.00 0.00 0.00 91 1011.7
20260903122156 71 174 2.6 4.3 0.00 0.00 0.00 91 1011.7
20260903122101 71 175 3.5 4.3 0.00 0.00 0.00 91 1011.7
20260903122006 71 175 2.6 4.3 0.00 0.00 0.00 91 1011.7
20260903121915 71 175 1.7 5.2 0.00 0.00 0.00 91 1011.7
20260903121839 71 169 0.9 4.3 0.00 0.00 0.00 91 1011.7
20260903121742 71 169 0.9 4.3 0.00 0.00 0.00 91 1011.7
20260903121559 71 169 1.7 4.3 0.00 0.00 0.00 91 1011.7
20260903121504 71 169 3.5 4.3 0.00 0.00 0.00 91 1011.6
20260903121409 71 169 3.5 4.3 0.00 0.00 0.00 91 1011.6
20260903121334 71 166 3.5 5.2 0.00 0.00 0.00 91 1011.7
20260903121202 71 168 2.6 4.3 0.00 0.00 0.00 91 1011.7
20260903121107 71 168 3.5 4.3 0.00 0.00 0.00 91 1011.7
20260903121012 71 165 2.6 4.3 0.00 0.00 0.00 91 1011.8
20260903120918 71 165 1.7 4.3 0.00 0.00 0.00 91 1011.8
20260903120820 71 165 1.7 5.2 0.00 0.00 0.00 91 1011.8
20260903120657 70 165 1.7 5.2 0.00 0.00 0.00 90 1011.7
20260903120602 70 165 2.6 5.2 0.00 0.00 0.00 90 1011.5
20260903120511 71 165 3.5 5.2 0.00 0.00 0.00 91 1011.5
20260903120435 70 165 3.5 5.2 0.00 0.00 0.00 91 1011.6
20260903120319 70 164 2.6 5.2 0.00 0.00 0.00 91 1011.7
20260903120156 70 163 1.7 5.2 0.00 0.00 0.00 90 1011.6
20260903120121 70 163 1.7 5.2 0.00 0.00 0.00 90 1011.6
20260903115959 70 163 1.7 5.2 0.00 0.00 0.00 91 1011.5
20260903115909 70 162 1.7 5.2 0.00 0.00 0.00 91 1011.5
20260903115813 70 179 1.7 4.3 0.00 0.00 0.00 91 1011.6
20260903115658 70 179 2.6 4.3 0.00 0.00 0.00 90 1011.7
20260903115602 70 178 2.6 4.3 0.00 0.00 0.00 90 1011.5
20260903115507 70 177 2.6 3.5 0.00 0.00 0.00 90 1011.5
20260903115412 70 173 2.6 3.5 0.00 0.00 0.00 90 1011.5
20260903115305 70 173 2.6 3.5 0.00 0.00 0.00 90 1011.5
20260903115207 70 173 2.6 4.3 0.00 0.00 0.00 90 1011.5
20260903115111 70 173 2.6 3.5 0.00 0.00 0.00 90 1011.5
20260903114956 70 173 1.7 4.3 0.00 0.00 0.00 90 1011.4
20260903114901 70 173 1.7 3.5 0.00 0.00 0.00 90 1011.4
20260903114806 70 173 1.7 3.5 0.00 0.00 0.00 90 1011.5
20260903114734 70 173 1.7 3.5 0.00 0.00 0.00 90 1011.5
20260903114618 70 173 1.7 3.5 0.00 0.00 0.00 90 1011.6
20260903114543 70 173 1.7 3.5 0.00 0.00 0.00 90 1011.6
20260903114359 70 173 1.7 3.5 0.00 0.00 0.00 90 1011.5
20260903114304 70 173 1.7 3.5 0.00 0.00 0.00 90 1011.4
20260903114209 70 173 2.6 3.5 0.00 0.00 0.00 90 1011.4
20260903114058 70 165 2.6 6.1 0.00 0.00 0.00 90 1011.4
20260903114002 70 164 1.7 6.1 0.00 0.00 0.00 90 1011.4
20260903113907 70 163 1.7 6.1 0.00 0.00 0.00 90 1011.4
20260903113833 70 163 1.7 6.1 0.00 0.00 0.00 90 1011.4
20260903113656 70 163 2.6 6.1 0.00 0.00 0.00 90 1011.4
20260903113621 70 163 2.6 6.1 0.00 0.00 0.00 90 1011.4
20260903113459 70 162 3.5 6.1 0.00 0.00 0.00 90 1011.3
20260903113407 70 161 4.3 6.1 0.00 0.00 0.00 90 1011.3
20260903113312 70 155 4.3 6.1 0.00 0.00 0.00 90 1011.4
20260903113217 71 165 3.5 5.2 0.00 0.00 0.00 90 1011.4
20260903113121 71 167 2.6 5.2 0.00 0.00 0.00 90 1011.4
20260903112959 70 167 2.6 5.2 0.00 0.00 0.00 90 1011.6
20260903112904 70 167 2.6 5.2 0.00 0.00 0.00 90 1011.4
20260903112812 71 167 1.7 5.2 0.00 0.00 0.00 90 1011.4
20260903112717 70 174 1.7 5.2 0.00 0.00 0.00 90 1011.5
20260903112642 70 174 2.6 5.2 0.00 0.00 0.00 90 1011.4
20260903112459 70 174 2.6 5.2 0.00 0.00 0.00 90 1011.4
20260903112404 71 167 2.6 5.2 0.00 0.00 0.00 90 1011.4
20260903112310 71 178 2.6 5.2 0.00 0.00 0.00 90 1011.4
20260903112158 71 178 2.6 5.2 0.00 0.00 0.00 90 1011.3
20260903112100 70 181 3.5 5.2 0.00 0.00 0.00 90 1011.3
20260903112005 70 188 3.5 5.2 0.00 0.00 0.00 90 1011.4
20260903111910 71 192 3.5 5.2 0.00 0.00 0.00 90 1011.4
20260903111814 71 176 3.5 7.0 0.00 0.00 0.00 90 1011.3
20260903111659 71 168 3.5 7.0 0.00 0.00 0.00 90 1011.3
20260903111608 71 169 3.5 7.0 0.00 0.00 0.00 90 1011.3
20260903111512 70 173 2.6 7.0 0.00 0.00 0.00 90 1011.4
20260903111436 71 173 3.5 7.0 0.00 0.00 0.00 90 1011.3
20260903111320 70 180 4.3 7.0 0.00 0.00 0.00 90 1011.4
20260903111203 70 178 4.3 7.0 0.00 0.00 0.00 90 1011.4
20260903111128 70 195 5.2 7.0 0.00 0.00 0.00 90 1011.4
20260903111012 70 196 4.3 7.0 0.00 0.00 0.00 90 1011.5
20260903110856 70 195 3.5 5.2 0.00 0.00 0.00 90 1011.6
20260903110804 70 198 3.5 5.2 0.00 0.00 0.00 90 1011.5
20260903110709 70 199 3.5 5.2 0.00 0.00 0.00 90 1011.5
20260903110615 70 199 3.5 5.2 0.00 0.00 0.00 91 1011.6
20260903110539 70 200 4.3 5.2 0.00 0.00 0.00 91 1011.6
20260903110355 70 176 4.3 5.2 0.00 0.00 0.00 91 1011.7
20260903110300 70 192 4.3 5.2 0.00 0.00 0.00 91 1011.7
20260903110209 70 192 3.5 5.2 0.00 0.00 0.00 91 1011.7
20260903110115 70 188 3.5 5.2 0.00 0.00 0.00 91 1011.7
20260903105959 70 188 4.3 5.2 0.00 0.00 0.00 91 1011.7
20260903105904 70 175 4.3 7.0 0.00 0.00 0.00 91 1011.7
20260903105808 70 171 4.3 7.0 0.00 0.00 0.00 91 1011.7
20260903105713 70 191 4.3 7.0 0.00 0.00 0.00 91 1011.7
20260903105602 70 194 3.5 7.0 0.00 0.00 0.00 91 1011.8
20260903105528 70 208 3.5 7.0 0.00 0.00 0.00 91 1011.8
20260903105411 70 209 4.3 7.0 0.00 0.00 0.00 91 1011.8
20260903105255 70 212 4.3 7.0 0.00 0.00 0.00 91 1011.7
20260903105200 70 203 4.3 7.0 0.00 0.00 0.00 91 1011.8
20260903105125 70 201 4.3 7.0 0.00 0.00 0.00 91 1011.7
20260903105009 70 189 4.3 6.1 0.00 0.00 0.00 91 1011.7
20260903104858 70 227 4.3 6.1 0.00 0.00 0.00 91 1011.7
20260903104803 70 209 4.3 6.1 0.00 0.00 0.00 91 1011.6
20260903104707 70 207 4.3 6.1 0.00 0.00 0.00 91 1011.6
20260903104632 70 188 5.2 6.1 0.00 0.00 0.00 91 1011.7
20260903104456 70 199 4.3 6.1 0.00 0.00 0.00 91 1011.6
20260903104401 70 194 3.5 5.2 0.00 0.00 0.00 91 1011.6
20260903104330 70 189 2.6 5.2 0.00 0.00 0.00 91 1011.6
20260903104213 70 190 2.6 5.2 0.00 0.00 0.00 91 1011.7
20260903104058 70 203 2.6 4.3 0.00 0.00 0.00 91 1011.7
20260903104003 70 204 3.5 4.3 0.00 0.00 0.00 91 1011.7
20260903103907 69 198 3.5 4.3 0.00 0.00 0.00 90 1011.7
20260903103812 70 198 2.6 4.3 0.00 0.00 0.00 90 1011.7
20260903103721 70 198 2.6 4.3 0.00 0.00 0.00 90 1011.5
20260903103559 70 196 2.6 4.3 0.00 0.00 0.00 90 1011.5
20260903103524 70 196 2.6 4.3 0.00 0.00 0.00 90 1011.5
20260903103408 70 196 3.5 4.3 0.00 0.00 0.00 90 1011.5
20260903103313 70 196 3.5 4.3 0.00 0.00 0.00 90 1011.6
20260903103158 70 196 3.5 4.3 0.00 0.00 0.00 90 1011.4
20260903103107 70 196 3.5 4.3 0.00 0.00 0.00 90 1011.4
20260903103012 70 196 2.6 4.3 0.00 0.00 0.00 90 1011.4
20260903102858 70 196 2.6 3.5 0.00 0.00 0.00 90 1011.6
20260903102822 70 196 2.6 3.5 0.00 0.00 0.00 90 1011.5
20260903102705 70 198 2.6 3.5 0.00 0.00 0.00 90 1011.4
20260903102610 70 198 2.6 3.5 0.00 0.00 0.00 90 1011.4
20260903102458 70 200 1.7 3.5 0.00 0.00 0.00 90 1011.6
20260903102423 70 200 1.7 5.2 0.00 0.00 0.00 90 1011.6
20260903102326 70 200 1.7 5.2 0.00 0.00 0.00 90 1011.6
20260903102209 70 200 2.6 5.2 0.00 0.00 0.00 90 1011.6
20260903102113 70 200 2.6 5.2 0.00 0.00 0.00 90 1011.5
20260903102018 70 200 2.6 5.2 0.00 0.00 0.00 90 1011.6
20260903101902 70 200 2.6 5.2 0.00 0.00 0.00 90 1011.6
20260903101807 70 194 1.7 5.2 0.00 0.00 0.00 90 1011.6
20260903101656 70 193 2.6 5.2 0.00 0.00 0.00 90 1011.5
20260903101601 70 193 3.5 5.2 0.00 0.00 0.00 90 1011.5
20260903101506 70 194 3.5 5.2 0.00 0.00 0.00 90 1011.4
20260903101411 70 194 3.5 5.2 0.00 0.00 0.00 90 1011.4
20260903101335 70 189 4.3 5.2 0.00 0.00 0.00 90 1011.3
20260903101219 70 201 3.5 5.2 0.00 0.00 0.00 90 1011.3
20260903101106 70 167 3.5 7.0 0.00 0.00 0.00 90 1011.2
20260903101010 70 184 3.5 5.2 0.00 0.00 0.00 90 1011.2
20260903100855 70 190 2.6 4.3 0.00 0.00 0.00 90 1011.3
20260903100800 70 177 2.6 4.3 0.00 0.00 0.00 90 1011.3
20260903100705 70 177 3.5 4.3 0.00 0.00 0.00 90 1011.3
20260903100609 70 176 3.5 5.2 0.00 0.00 0.00 90 1011.3
20260903100458 70 184 3.5 5.2 0.00 0.00 0.00 90 1011.2
20260903100402 70 184 2.6 5.2 0.00 0.00 0.00 90 1011.2
20260903100307 70 182 2.6 5.2 0.00 0.00 0.00 91 1011.2
20260903100212 70 182 2.6 5.2 0.00 0.00 0.00 91 1011.2
20260903100116 70 181 2.6 5.2 0.00 0.00 0.00 91 1011.2
20260903100000 70 182 2.6 5.2 0.00 0.00 0.00 91 1011.2
20260903095909 70 180 2.6 5.2 0.00 0.00 0.00 91 1011.2
20260903095814 70 180 2.6 5.2 0.00 0.00 0.00 91 1011.2
20260903095718 70 174 2.6 5.2 0.00 0.00 0.00 91 1011.1
20260903095602 70 173 2.6 5.2 0.00 0.00 0.00 91 1011.1
20260903095507 70 175 2.6 5.2 0.00 0.00 0.00 91 1011.1
20260903095412 70 174 3.5 5.2 0.00 0.00 0.00 91 1011.1
20260903095305 70 175 3.5 5.2 0.00 0.00 0.00 91 1011.1
20260903095206 70 179 3.5 5.2 0.00 0.00 0.00 91 1011.1
20260903095035 69 182 2.6 5.2 0.00 0.00 0.00 91 1011.2
20260903094919 69 181 2.6 6.1 0.00 0.00 0.00 91 1011.1
20260903094802 69 186 2.6 6.1 0.00 0.00 0.00 91 1011.2
20260903094727 69 191 2.6 6.1 0.00 0.00 0.00 91 1011.2
20260903094610 69 192 3.5 6.1 0.00 0.00 0.00 91 1011.2
20260903094519 69 190 3.5 6.1 0.00 0.00 0.00 91 1011.4
20260903094403 69 189 3.5 6.1 0.00 0.00 0.00 91 1011.3
20260903094308 69 189 3.5 6.1 0.00 0.00 0.00 91 1011.3
20260903094213 69 189 3.5 6.1 0.00 0.00 0.00 91 1011.3
20260903094057 69 190 3.5 6.1 0.00 0.00 0.00 91 1011.4
20260903094002 69 188 3.5 4.3 0.00 0.00 0.00 91 1011.4
20260903093910 69 188 2.6 5.2 0.00 0.00 0.00 91 1011.4
20260903093755 69 187 2.6 5.2 0.00 0.00 0.00 91 1011.4
20260903093700 69 186 2.6 5.2 0.00 0.00 0.00 91 1011.4
20260903093605 69 187 2.6 5.2 0.00 0.00 0.00 91 1011.4
20260903093529 69 188 2.6 5.2 0.00 0.00 0.00 91 1011.4
20260903093413 69 188 3.5 5.2 0.00 0.00 0.00 91 1011.3
20260903093302 69 190 3.5 5.2 0.00 0.00 0.00 90 1011.4
20260903093208 69 190 3.5 5.2 0.00 0.00 0.00 90 1011.4
20260903093112 69 185 3.5 5.2 0.00 0.00 0.00 90 1011.4
20260903092957 69 181 3.5 4.3 0.00 0.00 0.00 90 1011.4
20260903092902 69 180 3.5 4.3 0.00 0.00 0.00 90 1011.3
20260903092807 69 178 2.6 4.3 0.00 0.00 0.00 90 1011.3
20260903092656 69 178 2.6 4.3 0.00 0.00 0.00 90 1011.4
20260903092600 69 178 1.7 4.3 0.00 0.00 0.00 90 1011.2
20260903092504 69 175 1.7 3.5 0.00 0.00 0.00 90 1011.2
20260903092409 69 174 1.7 3.5 0.00 0.00 0.00 90 1011.2
20260903092314 69 174 2.6 3.5 0.00 0.00 0.00 90 1011.3
20260903092159 69 174 2.6 4.3 0.00 0.00 0.00 90 1011.2
20260903092108 69 171 2.6 3.5 0.00 0.00 0.00 90 1011.2
20260903092013 69 171 2.6 4.3 0.00 0.00 0.00 90 1011.2
20260903091858 69 171 1.7 3.5 0.00 0.00 0.00 90 1011.2
20260903091803 70 170 1.7 3.5 0.00 0.00 0.00 90 1011.2
20260903091728 70 170 1.7 2.6 0.00 0.00 0.00 90 1011.2
20260903091611 69 170 1.7 2.6 0.00 0.00 0.00 91 1011.2
20260903091500 69 170 0.9 3.5 0.00 0.00 0.00 90 1011.3
20260903091405 69 169 0.9 2.6 0.00 0.00 0.00 90 1011.4
20260903091309 69 169 0.9 2.6 0.00 0.00 0.00 91 1011.4
20260903091214 69 169 1.7 2.6 0.00 0.00 0.00 91 1011.4
20260903091120 69 169 1.7 3.5 0.00 0.00 0.00 91 1011.4
20260903090958 69 169 1.7 3.5 0.00 0.00 0.00 91 1011.5
20260903090907 69 169 1.7 2.6 0.00 0.00 0.00 91 1011.5
20260903090833 69 169 1.7 3.5 0.00 0.00 0.00 91 1011.5
20260903090716 69 169 1.7 3.5 0.00 0.00 0.00 91 1011.6
20260903090642 69 169 1.7 2.6 0.00 0.00 0.00 91 1011.5
20260903090458 69 169 1.7 2.6 0.00 0.00 0.00 90 1011.5
20260903090403 69 169 1.7 3.5 0.00 0.00 0.00 90 1011.4
20260903090307 69 169 0.9 5.2 0.00 0.00 0.00 90 1011.4
20260903090216 69 169 1.7 5.2 0.00 0.00 0.00 90 1011.4
20260903090100 69 168 1.7 5.2 0.00 0.00 0.00 91 1011.4
20260903090026 69 168 1.7 5.2 0.00 0.00 0.00 91 1011.4
20260903085929 69 168 1.7 5.2 0.00 0.00 0.00 91 1011.4
20260903085813 69 168 1.7 5.2 0.00 0.00 0.00 91 1011.4
20260903085739 69 168 2.6 5.2 0.00 0.00 0.00 91 1011.3
20260903085556 69 168 2.6 5.2 0.00 0.00 0.00 91 1011.1
20260903085521 69 169 2.6 5.2 0.00 0.00 0.00 91 1011.1
20260903085408 69 161 1.7 4.3 0.00 0.00 0.00 91 1011.1
20260903085313 69 161 0.9 4.3 0.00 0.00 0.00 91 1011.0
20260903085218 69 161 0.9 4.3 0.00 0.00 0.00 91 1011.0
20260903085122 69 161 1.7 4.3 0.00 0.00 0.00 91 1011.0
20260903085007 69 161 2.6 4.3 0.00 0.00 0.00 91 1011.0
20260903084911 69 161 3.5 4.3 0.00 0.00 0.00 91 1011.0
20260903084800 69 163 2.6 4.3 0.00 0.00 0.00 90 1011.0
20260903084705 69 164 2.6 4.3 0.00 0.00 0.00 90 1011.0
20260903084609 69 165 2.6 4.3 0.00 0.00 0.00 89 1011.0
20260903084514 69 165 2.6 4.3 0.00 0.00 0.00 89 1011.1
20260903084418 69 166 2.6 4.3 0.00 0.00 0.00 89 1011.1
20260903084256 69 166 2.6 4.3 0.00 0.00 0.00 89 1011.2
20260903084204 69 164 2.6 4.3 0.00 0.00 0.00 88 1011.2
20260903084109 69 164 2.6 4.3 0.00 0.00 0.00 88 1011.2
20260903084014 70 165 2.6 3.5 0.00 0.00 0.00 88 1011.3
20260903083859 70 165 2.6 3.5 0.00 0.00 0.00 89 1011.3
20260903083824 70 179 1.7 3.5 0.00 0.00 0.00 89 1011.3
20260903083708 70 180 2.6 3.5 0.00 0.00 0.00 89 1011.3
20260903083558 70 180 2.6 2.6 0.00 0.00 0.00 89 1011.4
20260903083502 70 180 1.7 2.6 0.00 0.00 0.00 89 1011.4
20260903083407 70 180 1.7 2.6 0.00 0.00 0.00 89 1011.4
20260903083311 70 180 1.7 2.6 0.00 0.00 0.00 89 1011.5
20260903083155 70 180 1.7 2.6 0.00 0.00 0.00 89 1011.5
20260903083100 70 180 1.7 2.6 0.00 0.00 0.00 89 1011.6
20260903083008 70 180 1.7 2.6 0.00 0.00 0.00 89 1011.6
20260903082913 70 180 1.7 2.6 0.00 0.00 0.00 89 1011.6
20260903082819 70 181 1.7 2.6 0.00 0.00 0.00 89 1011.6
20260903082657 70 181 1.7 2.6 0.00 0.00 0.00 89 1011.6
20260903082601 70 181 1.7 2.6 0.00 0.00 0.00 89 1011.5
20260903082506 70 181 1.7 2.6 0.00 0.00 0.00 89 1011.5
20260903082415 70 181 1.7 2.6 0.00 0.00 0.00 89 1011.6
20260903082319 70 181 1.7 2.6 0.00 0.00 0.00 89 1011.6
20260903082156 70 181 0.9 2.6 0.00 0.00 0.00 89 1011.7
20260903082101 70 181 0.9 2.6 0.00 0.00 0.00 89 1011.6
20260903082006 70 181 0.9 2.6 0.00 0.00 0.00 89 1011.6
20260903081912 70 181 0.9 2.6 0.00 0.00 0.00 89 1011.6
20260903081800 70 181 1.7 2.6 0.00 0.00 0.00 89 1011.6
20260903081705 70 181 1.7 3.5 0.00 0.00 0.00 89 1011.6
20260903081630 70 181 1.7 3.5 0.00 0.00 0.00 89 1011.7
20260903081514 70 181 0.9 3.5 0.00 0.00 0.00 89 1011.6
20260903081418 70 181 0.9 3.5 0.00 0.00 0.00 89 1011.7
20260903081257 70 181 1.7 3.5 0.00 0.00 0.00 89 1011.6
20260903081221 70 181 1.7 3.5 0.00 0.00 0.00 89 1011.6
20260903081109 70 181 1.7 3.5 0.00 0.00 0.00 89 1011.6
20260903081014 70 181 1.7 3.5 0.00 0.00 0.00 89 1011.6
20260903080919 70 181 1.7 3.5 0.00 0.00 0.00 89 1011.6
20260903080823 71 181 1.7 3.5 0.00 0.00 0.00 89 1011.4
20260903080707 70 181 1.7 3.5 0.00 0.00 0.00 89 1011.4
20260903080631 70 181 1.7 3.5 0.00 0.00 0.00 89 1011.5
20260903080455 70 181 1.7 3.5 0.00 0.00 0.00 89 1011.5
20260903080404 70 181 1.7 3.5 0.00 0.00 0.00 89 1011.5
20260903080309 70 181 1.7 3.5 0.00 0.00 0.00 89 1011.5
20260903080214 70 180 1.7 2.6 0.00 0.00 0.00 89 1011.5
20260903080119 70 180 1.7 2.6 0.00 0.01 0.00 89 1011.4
20260903075956 70 181 1.7 2.6 0.00 0.01 0.00 89 1011.6
20260903075901 70 181 1.7 2.6 0.00 0.01 0.00 89 1011.6
20260903075826 71 181 1.7 2.6 0.00 0.01 0.00 89 1011.6
20260903075715 70 181 1.7 2.6 0.00 0.01 0.00 89 1011.7
20260903075559 70 180 1.7 2.6 0.00 0.01 0.00 89 1011.6
20260903075524 71 180 1.7 2.6 0.00 0.01 0.00 88 1011.6
20260903075408 71 180 1.7 2.6 0.00 0.01 0.00 88 1011.6
20260903075312 71 180 1.7 2.6 0.00 0.01 0.00 88 1011.6
20260903075157 71 180 1.7 2.6 0.00 0.01 0.00 88 1011.7
20260903075106 71 180 1.7 2.6 0.00 0.01 0.00 88 1011.7
20260903075011 71 180 1.7 2.6 0.00 0.01 0.00 88 1011.6
20260903074856 71 180 1.7 2.6 0.00 0.01 0.00 88 1011.6
20260903074821 71 180 1.7 2.6 0.00 0.01 0.00 88 1011.6
20260903074705 71 180 1.7 2.6 0.00 0.01 0.00 88 1011.6
20260903074609 71 180 1.7 2.6 0.00 0.01 0.00 88 1011.6
20260903074518 71 180 1.7 2.6 0.00 0.01 0.00 88 1011.7
20260903074356 71 180 1.7 2.6 0.00 0.01 0.00 88 1011.7
20260903074321 71 180 1.7 2.6 0.00 0.01 0.00 88 1011.7
20260903074205 71 180 1.7 2.6 0.00 0.01 0.00 88 1011.7
20260903074109 71 180 1.7 2.6 0.00 0.01 0.00 88 1011.7
20260903074014 71 180 1.7 2.6 0.00 0.01 0.00 88 1011.7
20260903073903 71 180 1.7 2.6 0.00 0.01 0.00 88 1011.6
20260903073809 71 180 1.7 2.6 0.00 0.01 0.00 88 1011.6
20260903073713 71 180 1.7 2.6 0.00 0.01 0.00 88 1011.7
20260903073557 71 180 1.7 2.6 0.00 0.01 0.00 88 1011.7
20260903073502 71 180 1.7 2.6 0.00 0.01 0.00 88 1011.7
20260903073407 71 180 1.7 2.6 0.00 0.01 0.00 88 1011.7
20260903073255 71 180 0.9 2.6 0.00 0.01 0.00 88 1011.7
20260903073200 71 180 0.9 2.6 0.00 0.01 0.00 88 1011.7
20260903073104 71 180 0.9 2.6 0.00 0.01 0.00 88 1011.7
20260903073010 71 180 1.7 2.6 0.00 0.01 0.00 88 1011.7
20260903072914 71 180 1.7 2.6 0.00 0.01 0.00 87 1011.7
20260903072759 71 180 1.7 2.6 0.00 0.01 0.00 87 1011.8
20260903072728 71 180 1.7 2.6 0.00 0.01 0.00 87 1011.8
20260903072612 71 180 1.7 2.6 0.00 0.01 0.00 88 1011.9
20260903072457 71 180 1.7 2.6 0.00 0.01 0.00 87 1011.9
20260903072402 71 180 0.9 2.6 0.00 0.01 0.00 87 1011.9
20260903072307 71 180 0.9 2.6 0.00 0.01 0.00 87 1011.9
20260903072231 71 180 0.9 4.3 0.00 0.01 0.00 87 1011.9
20260903072059 71 180 0.9 4.3 0.00 0.01 0.00 87 1011.9
20260903072003 71 180 0.9 4.3 0.00 0.01 0.00 87 1011.9
20260903071909 71 180 0.9 4.3 0.00 0.01 0.00 87 1011.9
20260903071813 71 180 1.7 4.3 0.00 0.01 0.00 87 1012.0
20260903071719 71 180 1.7 4.3 0.00 0.01 0.00 87 1011.9
20260903071556 71 180 2.6 4.3 0.00 0.01 0.00 87 1011.9
20260903071506 71 180 2.6 4.3 0.00 0.01 0.00 87 1011.9
20260903071430 71 180 2.6 4.3 0.00 0.01 0.00 87 1011.9
20260903071314 71 179 2.6 4.3 0.00 0.01 0.00 87 1011.9
20260903071159 71 179 2.6 4.3 0.00 0.01 0.00 87 1011.9
20260903071124 71 179 2.6 4.3 0.00 0.01 0.00 87 1011.9
20260903071008 71 179 2.6 4.3 0.00 0.01 0.00 87 1011.9
20260903070933 71 179 2.6 4.3 0.00 0.01 0.00 87 1011.8
20260903070801 71 180 2.6 4.3 0.00 0.01 0.00 87 1011.9
20260903070706 71 179 2.6 4.3 0.00 0.01 0.00 88 1011.9
20260903070609 71 177 2.6 4.3 0.00 0.01 0.00 88 1011.9
20260903070514 71 177 2.6 4.3 0.00 0.01 0.00 88 1011.9
20260903070419 71 175 2.6 3.5 0.00 0.01 0.00 88 1011.9
20260903070303 71 173 2.6 4.3 0.00 0.01 0.00 88 1011.9
20260903070208 71 169 3.5 4.3 0.00 0.01 0.00 88 1011.9
20260903070116 71 167 2.6 4.3 0.00 0.01 0.00 88 1011.9
20260903070020 71 167 2.6 4.3 0.00 0.01 0.00 88 1011.9
20260903065858 71 165 2.6 4.3 0.00 0.01 0.00 88 1011.9
20260903065823 71 181 2.6 4.3 0.00 0.01 0.00 88 1011.9
20260903065727 71 180 2.6 4.3 0.00 0.01 0.00 87 1011.9
20260903065612 71 180 2.6 4.3 0.00 0.01 0.00 88 1011.9
20260903065516 71 180 2.6 4.3 0.00 0.01 0.00 87 1011.9
20260903065420 71 179 3.5 4.3 0.00 0.01 0.00 87 1011.9
20260903065328 71 181 3.5 4.3 0.00 0.01 0.00 87 1011.9
20260903065231 71 181 3.5 4.3 0.00 0.01 0.00 87 1011.9
20260903065135 71 180 2.6 4.3 0.00 0.01 0.00 87 1011.9
20260903065019 71 176 2.6 4.3 0.00 0.01 0.00 87 1011.9
20260903064856 71 178 2.6 4.3 0.00 0.01 0.00 87 1011.9
20260903064801 71 177 1.7 4.3 0.00 0.01 0.00 87 1011.9
20260903064706 71 177 1.7 4.3 0.00 0.01 0.00 87 1011.9
20260903064614 71 177 0.9 4.3 0.00 0.01 0.00 87 1011.9
20260903064459 71 177 1.7 4.3 0.00 0.01 0.00 87 1011.9
20260903064404 71 177 1.7 4.3 0.00 0.01 0.00 87 1011.9
20260903064309 71 177 1.7 4.3 0.00 0.01 0.00 87 1011.9
20260903064214 71 177 2.6 4.3 0.00 0.01 0.00 87 1012.0
20260903064059 71 176 1.7 4.3 0.00 0.01 0.00 87 1012.0
20260903064008 71 175 1.7 2.6 0.00 0.01 0.00 87 1012.0
20260903063914 71 175 0.9 2.6 0.00 0.01 0.00 87 1012.1
20260903063818 71 175 0.9 3.5 0.00 0.01 0.00 87 1012.0
20260903063721 71 175 0.9 3.5 0.00 0.01 0.00 87 1012.1
20260903063605 71 175 1.7 3.5 0.00 0.01 0.00 87 1012.1
20260903063510 72 175 1.7 3.5 0.00 0.01 0.00 87 1012.1
20260903063359 71 175 1.7 3.5 0.00 0.01 0.00 87 1012.1
20260903063303 71 175 1.7 3.5 0.00 0.01 0.00 86 1012.1
20260903063228 71 175 1.7 3.5 0.00 0.01 0.00 86 1012.1
20260903063112 72 175 1.7 3.5 0.00 0.01 0.00 86 1012.1
20260903062957 72 175 1.7 3.5 0.00 0.01 0.00 86 1012.1
20260903062903 72 176 1.7 2.6 0.00 0.01 0.00 86 1012.1
20260903062807 72 177 1.7 2.6 0.00 0.01 0.00 86 1012.1
20260903062655 72 177 1.7 2.6 0.00 0.01 0.00 86 1012.2
20260903062620 72 176 1.7 2.6 0.00 0.01 0.00 86 1012.2
20260903062504 72 177 1.7 2.6 0.00 0.01 0.00 86 1012.2
20260903062409 72 177 1.7 2.6 0.00 0.01 0.00 86 1012.2
20260903062334 72 177 1.7 2.6 0.00 0.01 0.00 86 1012.3
20260903062218 72 177 1.7 2.6 0.00 0.01 0.00 86 1012.3
20260903062056 72 177 0.9 2.6 0.00 0.01 0.00 86 1012.2
20260903062005 72 177 0.9 2.6 0.00 0.01 0.00 86 1012.3
20260903061909 72 177 1.7 2.6 0.00 0.01 0.00 86 1012.3
20260903061834 72 177 1.7 2.6 0.00 0.01 0.00 86 1012.3
20260903061718 72 177 1.7 2.6 0.00 0.01 0.00 86 1012.3
20260903061556 72 177 1.7 2.6 0.00 0.01 0.00 86 1012.3
20260903061501 72 177 1.7 2.6 0.00 0.01 0.00 86 1012.3
20260903061410 72 177 1.7 3.5 0.00 0.01 0.00 86 1012.3
20260903061314 72 177 1.7 3.5 0.00 0.01 0.00 86 1012.3
20260903061200 72 177 1.7 3.5 0.00 0.01 0.00 86 1012.3
20260903061124 72 177 1.7 3.5 0.00 0.01 0.00 86 1012.3
20260903061007 72 177 1.7 3.5 0.00 0.01 0.00 86 1012.3
20260903060913 72 177 1.7 3.5 0.00 0.01 0.00 86 1012.3
20260903060801 72 178 1.7 4.3 0.00 0.01 0.00 86 1012.3
20260903060704 72 178 1.7 4.3 0.00 0.01 0.00 86 1012.3
20260903060609 72 178 1.7 4.3 0.00 0.01 0.00 86 1012.3
20260903060534 72 173 1.7 3.5 0.00 0.01 0.00 86 1012.2
20260903060439 72 173 0.9 3.5 0.00 0.01 0.00 86 1012.2
20260903060256 72 173 1.7 3.5 0.00 0.01 0.00 86 1012.3
20260903060201 72 173 1.7 3.5 0.00 0.01 0.00 86 1012.2
20260903060126 72 173 1.7 4.3 0.00 0.01 0.00 86 1012.2
20260903060015 72 171 0.9 3.5 0.00 0.01 0.00 86 1012.2
20260903055859 72 171 0.9 3.5 0.00 0.01 0.00 86 1012.2
20260903055803 72 171 0.9 3.5 0.00 0.01 0.00 86 1012.2
20260903055728 72 171 1.7 3.5 0.00 0.01 0.00 86 1012.2
20260903055612 72 171 1.7 3.5 0.00 0.01 0.00 86 1012.2
20260903055457 72 171 0.9 3.5 0.00 0.01 0.00 86 1012.2
20260903055406 72 171 0.9 3.5 0.00 0.01 0.00 86 1012.2
20260903055331 72 171 1.7 3.5 0.00 0.01 0.00 86 1012.2
20260903055155 72 171 1.7 3.5 0.00 0.01 0.00 86 1012.3
20260903055100 72 170 0.9 3.5 0.00 0.01 0.00 86 1012.2
20260903055005 72 170 0.9 2.6 0.00 0.01 0.00 86 1012.2
20260903054909 72 170 0.9 2.6 0.00 0.01 0.00 86 1012.2
20260903054758 72 170 0.9 2.6 0.00 0.01 0.00 86 1012.3
20260903054703 72 171 0.9 3.5 0.00 0.01 0.00 86 1012.3
20260903054628 72 170 0.0 2.6 0.00 0.01 0.00 86 1012.3
20260903054532 72 170 0.9 2.6 0.00 0.01 0.00 86 1012.2
20260903054435 72 170 0.9 2.6 0.00 0.01 0.00 86 1012.2
20260903054258 72 170 0.9 2.6 0.00 0.01 0.00 86 1012.1
20260903054203 72 170 0.9 2.6 0.00 0.01 0.00 86 1012.2
20260903054128 72 170 1.7 2.6 0.00 0.01 0.00 86 1012.2
20260903054016 72 170 1.7 3.5 0.00 0.01 0.00 85 1012.2
20260903053900 72 169 0.9 2.6 0.00 0.01 0.00 86 1012.2
20260903053805 72 169 0.9 2.6 0.00 0.01 0.00 86 1012.2
20260903053730 72 169 0.9 2.6 0.00 0.01 0.00 86 1012.2
20260903053614 72 169 0.9 2.6 0.00 0.01 0.00 86 1012.2
20260903053459 72 169 0.9 2.6 0.00 0.01 0.00 86 1012.2
20260903053404 72 169 1.7 2.6 0.00 0.01 0.00 86 1012.2
20260903053313 72 170 1.7 2.6 0.00 0.01 0.00 86 1012.2
20260903053157 72 170 1.7 3.5 0.00 0.01 0.00 86 1012.2
20260903053102 72 170 0.9 2.6 0.00 0.01 0.00 86 1012.3
20260903053007 72 170 0.9 2.6 0.00 0.01 0.00 86 1012.3
20260903052913 72 170 0.9 2.6 0.00 0.01 0.00 86 1012.2
20260903052801 72 170 1.7 2.6 0.00 0.01 0.00 85 1012.2
20260903052706 72 170 1.7 2.6 0.00 0.01 0.00 85 1012.2
20260903052610 72 170 1.7 3.5 0.00 0.01 0.00 85 1012.2
20260903052535 72 170 1.7 2.6 0.00 0.01 0.00 85 1012.3
20260903052359 72 170 1.7 3.5 0.00 0.01 0.00 85 1012.3
20260903052307 72 171 1.7 3.5 0.00 0.01 0.00 86 1012.3
20260903052209 72 171 1.7 2.6 0.00 0.01 0.00 86 1012.3
20260903052119 72 171 0.9 2.6 0.00 0.01 0.00 86 1012.3
20260903051956 72 171 1.7 2.6 0.00 0.01 0.00 86 1012.3
20260903051921 72 171 1.7 2.6 0.00 0.01 0.00 85 1012.3
20260903051758 72 171 1.7 2.6 0.00 0.01 0.00 85 1012.3
20260903051703 72 171 1.7 3.5 0.00 0.01 0.00 85 1012.2
20260903051607 72 171 1.7 2.6 0.00 0.01 0.00 85 1012.2
20260903051455 72 171 1.7 2.6 0.00 0.01 0.00 85 1012.3
20260903051400 72 171 1.7 3.5 0.00 0.01 0.00 85 1012.3
20260903051305 72 171 0.9 2.6 0.00 0.01 0.00 85 1012.3
20260903051211 72 171 1.7 2.6 0.00 0.01 0.00 85 1012.3
20260903051055 72 171 1.7 2.6 0.00 0.01 0.00 84 1012.3
20260903051004 72 171 1.7 2.6 0.00 0.01 0.00 84 1012.4
20260903050909 72 171 0.9 2.6 0.00 0.01 0.00 84 1012.4
20260903050834 72 171 1.7 2.6 0.00 0.01 0.00 84 1012.3
20260903050717 72 171 1.7 2.6 0.00 0.01 0.00 84 1012.4
20260903050600 72 171 0.9 3.5 0.00 0.01 0.00 84 1012.4
20260903050505 73 171 0.9 2.6 0.00 0.01 0.00 84 1012.4
20260903050411 73 171 1.7 2.6 0.00 0.01 0.00 84 1012.4
20260903050319 73 171 0.9 2.6 0.00 0.01 0.00 84 1012.5
20260903050155 73 171 0.9 2.6 0.00 0.01 0.01 84 1012.4
20260903050100 73 171 0.9 2.6 0.00 0.01 0.01 83 1012.3
20260903050006 73 171 0.9 2.6 0.00 0.01 0.01 83 1012.4
20260903045909 73 172 0.9 2.6 0.00 0.01 0.01 83 1012.4
20260903045812 73 172 0.9 2.6 0.00 0.01 0.01 83 1012.4
20260903045716 73 172 0.9 1.7 0.00 0.01 0.01 83 1012.4
20260903045620 73 172 0.9 1.7 0.00 0.01 0.01 83 1012.4
20260903045508 73 172 0.9 1.7 0.00 0.01 0.01 83 1012.4
20260903045413 73 172 0.9 1.7 0.00 0.01 0.01 83 1012.4
20260903045258 73 172 0.9 2.6 0.00 0.01 0.01 83 1012.4
20260903045203 73 172 0.9 2.6 0.00 0.01 0.01 83 1012.4
20260903045108 73 172 0.0 2.6 0.00 0.01 0.01 83 1012.5
20260903044956 73 172 0.0 2.6 0.00 0.01 0.01 83 1012.5
20260903044921 73 172 0.0 2.6 0.00 0.01 0.01 83 1012.5
20260903044759 74 172 0.0 2.6 0.00 0.01 0.01 83 1012.5
20260903044703 74 172 0.0 2.6 0.00 0.01 0.01 83 1012.4
20260903044608 74 172 0.9 2.6 0.00 0.01 0.01 83 1012.5
20260903044512 74 172 0.9 2.6 0.00 0.01 0.01 83 1012.5
20260903044401 74 172 0.9 2.6 0.00 0.01 0.01 82 1012.4
20260903044306 74 172 0.9 3.5 0.00 0.01 0.01 82 1012.5
20260903044211 74 172 1.7 3.5 0.00 0.01 0.01 82 1012.5
20260903044056 74 172 1.7 3.5 0.00 0.01 0.01 82 1012.4
20260903044001 74 172 1.7 3.5 0.00 0.01 0.01 82 1012.5
20260903043906 74 172 1.7 3.5 0.00 0.01 0.01 82 1012.5
20260903043755 74 172 0.9 3.5 0.00 0.01 0.01 82 1012.5
20260903043700 74 172 1.7 3.5 0.00 0.01 0.01 82 1012.5
20260903043605 74 172 1.7 3.5 0.00 0.01 0.01 82 1012.4
20260903043529 74 173 1.7 3.5 0.00 0.01 0.01 82 1012.5
20260903043412 74 173 1.7 3.5 0.00 0.01 0.01 83 1012.5
20260903043317 74 173 1.7 3.5 0.00 0.01 0.01 83 1012.5
20260903043200 74 174 1.7 3.5 0.00 0.01 0.01 83 1012.5
20260903043126 74 174 1.7 4.3 0.00 0.01 0.01 83 1012.5
20260903043013 74 175 1.7 4.3 0.00 0.01 0.01 83 1012.5
20260903042917 74 175 1.7 4.3 0.00 0.01 0.01 83 1012.4
20260903042756 74 176 1.7 4.3 0.00 0.01 0.01 82 1012.4
20260903042700 74 176 1.7 4.3 0.00 0.01 0.01 83 1012.5
20260903042606 74 176 1.7 4.3 0.00 0.01 0.01 83 1012.4
20260903042510 74 177 2.6 4.3 0.00 0.01 0.01 83 1012.4
20260903042358 74 177 1.7 4.3 0.00 0.01 0.01 82 1012.4
20260903042306 74 177 1.7 5.2 0.00 0.01 0.01 82 1012.4
20260903042207 74 174 1.7 4.3 0.00 0.01 0.01 82 1012.4
20260903042132 74 174 1.7 3.5 0.00 0.01 0.01 82 1012.4
20260903042017 74 174 1.7 3.5 0.00 0.01 0.01 82 1012.4
20260903041855 74 174 1.7 3.5 0.00 0.01 0.01 82 1012.4
20260903041824 74 174 1.7 3.5 0.00 0.01 0.01 82 1012.5
20260903041708 74 174 2.6 3.5 0.00 0.01 0.01 82 1012.5
20260903041613 74 174 2.6 4.3 0.00 0.01 0.01 82 1012.4
20260903041458 74 173 2.6 4.3 0.00 0.01 0.01 82 1012.4
20260903041403 74 173 2.6 3.5 0.00 0.01 0.01 82 1012.4
20260903041328 74 173 2.6 4.3 0.00 0.01 0.01 82 1012.5
20260903041232 74 173 2.6 4.3 0.00 0.01 0.01 82 1012.5
20260903041120 74 173 2.6 3.5 0.00 0.01 0.01 82 1012.4
20260903041004 74 173 2.6 4.3 0.00 0.01 0.01 82 1012.3
20260903040909 74 173 2.6 4.3 0.00 0.01 0.01 82 1012.3
20260903040814 74 173 2.6 3.5 0.00 0.01 0.01 82 1012.4
20260903040719 74 173 1.7 2.6 0.00 0.01 0.01 82 1012.4
20260903040602 74 172 1.7 2.6 0.00 0.01 0.01 81 1012.3
20260903040507 74 172 1.7 3.5 0.00 0.01 0.01 81 1012.4
20260903040356 74 172 1.7 3.5 0.00 0.01 0.01 81 1012.4
20260903040301 74 172 1.7 3.5 0.00 0.01 0.01 81 1012.4
20260903040206 74 172 2.6 3.5 0.00 0.01 0.01 81 1012.3
20260903040130 74 172 2.6 3.5 0.00 0.01 0.01 81 1012.3
20260903040033 74 172 1.7 3.5 0.00 0.01 0.01 81 1012.3
20260903035914 74 172 1.7 3.5 0.00 0.01 0.01 81 1012.4
20260903035819 74 172 1.7 3.5 0.00 0.01 0.01 81 1012.3
20260903035727 74 172 1.7 3.5 0.00 0.01 0.01 81 1012.4
20260903035630 74 171 2.6 3.5 0.00 0.01 0.01 81 1012.4
20260903035514 74 171 2.6 3.5 0.00 0.01 0.01 81 1012.5
20260903035440 74 171 2.6 3.5 0.00 0.01 0.01 81 1012.4
20260903035257 74 171 2.6 4.3 0.00 0.01 0.01 81 1012.5
20260903035201 74 171 1.7 3.5 0.00 0.01 0.01 80 1012.5
20260903035106 74 171 1.7 2.6 0.00 0.01 0.01 80 1012.5
20260903035014 74 171 1.7 3.5 0.00 0.01 0.01 80 1012.5
20260903034919 74 171 1.7 2.6 0.00 0.01 0.01 80 1012.5
20260903034823 74 171 1.7 3.5 0.00 0.01 0.01 80 1012.5
20260903034706 74 171 1.7 3.5 0.00 0.01 0.01 80 1012.5
20260903034611 74 171 1.7 3.5 0.00 0.01 0.01 80 1012.5
20260903034456 74 171 1.7 3.5 0.00 0.01 0.01 79 1012.5
20260903034421 75 171 0.9 3.5 0.00 0.01 0.01 79 1012.5
20260903034309 75 171 0.9 3.5 0.00 0.01 0.01 79 1012.5
20260903034214 75 171 0.9 3.5 0.00 0.01 0.01 79 1012.5
20260903034120 75 171 0.9 3.5 0.00 0.01 0.01 79 1012.4
20260903033956 75 171 0.9 3.5 0.00 0.01 0.01 79 1012.4
20260903033901 75 171 1.7 3.5 0.00 0.01 0.01 79 1012.4
20260903033806 75 171 1.7 3.5 0.00 0.01 0.01 79 1012.4
20260903033655 75 173 1.7 3.5 0.00 0.01 0.01 79 1012.4
20260903033621 75 173 1.7 3.5 0.00 0.01 0.01 79 1012.4
20260903033459 75 173 1.7 3.5 0.00 0.01 0.01 79 1012.4
20260903033404 75 173 1.7 4.3 0.00 0.01 0.01 79 1012.4
20260903033309 75 174 1.7 2.6 0.00 0.01 0.01 79 1012.4
20260903033234 75 174 0.9 2.6 0.00 0.01 0.01 79 1012.4
20260903033102 75 174 0.9 3.5 0.00 0.01 0.01 79 1012.5
20260903033027 75 174 1.7 3.5 0.00 0.01 0.01 79 1012.5
20260903032911 75 174 1.7 3.5 0.00 0.01 0.01 79 1012.5
20260903032817 75 174 1.7 3.5 0.00 0.01 0.01 79 1012.5
20260903032655 75 174 1.7 3.5 0.00 0.01 0.01 78 1012.5
20260903032600 75 174 1.7 3.5 0.00 0.01 0.01 78 1012.5
20260903032505 75 174 1.7 3.5 0.00 0.01 0.01 78 1012.5
20260903032414 75 174 1.7 3.5 0.00 0.01 0.01 78 1012.5
20260903032318 75 174 1.7 4.3 0.00 0.01 0.01 78 1012.5
20260903032202 75 173 0.9 2.6 0.00 0.01 0.01 78 1012.5
20260903032107 75 173 1.7 2.6 0.00 0.01 0.01 78 1012.5
20260903032032 75 173 0.9 2.6 0.00 0.01 0.01 78 1012.5
20260903031916 75 173 0.9 2.6 0.00 0.01 0.01 78 1012.5
20260903031800 75 173 0.9 2.6 0.00 0.01 0.01 78 1012.5
20260903031709 75 173 0.9 3.5 0.00 0.01 0.01 78 1012.5
20260903031614 75 173 1.7 3.5 0.00 0.01 0.01 78 1012.6
20260903031519 75 173 0.9 3.5 0.00 0.01 0.01 78 1012.6
20260903031357 75 174 0.9 3.5 0.00 0.01 0.01 78 1012.5
20260903031302 75 174 0.9 3.5 0.00 0.01 0.01 77 1012.5
20260903031207 75 174 0.9 3.5 0.00 0.01 0.01 77 1012.6
20260903031057 75 174 0.0 3.5 0.00 0.01 0.01 77 1012.6
20260903031001 75 174 0.9 3.5 0.00 0.01 0.01 78 1012.6
20260903030926 75 174 1.7 3.5 0.00 0.01 0.01 78 1012.5
20260903030810 75 174 1.7 4.3 0.00 0.01 0.01 78 1012.5
20260903030715 75 173 1.7 4.3 0.00 0.01 0.01 77 1012.6
20260903030600 75 173 1.7 4.3 0.00 0.01 0.01 77 1012.5
20260903030508 75 173 1.7 4.3 0.00 0.01 0.01 77 1012.5
20260903030413 75 173 1.7 4.3 0.00 0.01 0.01 77 1012.5
20260903030318 75 173 0.9 4.3 0.00 0.01 0.01 77 1012.5
20260903030202 75 173 1.7 4.3 0.00 0.01 0.01 77 1012.5
20260903030107 75 173 2.6 4.3 0.00 0.01 0.01 77 1012.6
20260903030011 75 173 2.6 5.2 0.00 0.01 0.01 77 1012.6
20260903025900 75 167 2.6 4.3 0.00 0.01 0.01 77 1012.5
20260903025806 75 167 2.6 4.3 0.00 0.01 0.01 76 1012.5
20260903025710 75 167 2.6 4.3 0.00 0.01 0.01 76 1012.5
20260903025614 75 166 1.7 4.3 0.00 0.01 0.01 76 1012.5
20260903025519 76 166 1.7 4.3 0.00 0.01 0.01 76 1012.6
20260903025423 76 166 1.7 4.3 0.00 0.01 0.01 76 1012.5
20260903025328 76 165 1.7 4.3 0.00 0.01 0.01 76 1012.5
20260903025155 76 165 1.7 4.3 0.00 0.01 0.01 76 1012.5
20260903025100 76 165 1.7 4.3 0.00 0.01 0.01 76 1012.6
20260903025025 76 165 1.7 4.3 0.00 0.01 0.01 75 1012.5
20260903024909 76 163 0.9 2.6 0.00 0.01 0.01 75 1012.5
20260903024813 76 163 0.9 2.6 0.00 0.01 0.01 75 1012.5
20260903024718 76 163 0.9 2.6 0.00 0.01 0.01 75 1012.5
20260903024601 76 163 0.9 2.6 0.00 0.01 0.01 75 1012.6
20260903024510 76 163 0.9 2.6 0.00 0.01 0.01 75 1012.6
20260903024434 76 163 0.9 4.3 0.00 0.01 0.01 75 1012.6
20260903024338 76 163 0.9 4.3 0.00 0.01 0.01 75 1012.5
20260903024155 76 163 0.9 4.3 0.00 0.01 0.01 74 1012.6
20260903024121 76 163 0.9 4.3 0.00 0.01 0.01 74 1012.6
20260903024004 76 163 1.7 4.3 0.00 0.01 0.01 74 1012.5
20260903023909 76 163 0.9 4.3 0.00 0.01 0.01 74 1012.5
20260903023817 76 163 1.7 4.3 0.00 0.01 0.01 74 1012.6
20260903023655 76 163 1.7 4.3 0.00 0.01 0.01 74 1012.6
20260903023600 76 163 1.7 4.3 0.00 0.01 0.01 74 1012.6
20260903023505 76 163 1.7 4.3 0.00 0.01 0.01 74 1012.6
20260903023410 76 162 0.9 4.3 0.00 0.01 0.01 74 1012.6
20260903023335 76 162 1.7 4.3 0.00 0.01 0.01 74 1012.6
20260903023202 76 162 1.7 4.3 0.00 0.01 0.01 74 1012.6
20260903023107 76 162 1.7 4.3 0.00 0.01 0.01 74 1012.6
20260903023011 76 162 1.7 4.3 0.00 0.01 0.01 74 1012.6
20260903022935 76 162 1.7 4.3 0.00 0.01 0.01 74 1012.6
20260903022819 76 162 2.6 4.3 0.00 0.01 0.01 74 1012.5
20260903022703 76 161 1.7 2.6 0.00 0.01 0.01 74 1012.5
20260903022608 76 161 1.7 3.5 0.00 0.01 0.01 73 1012.5
20260903022456 76 161 1.7 2.6 0.00 0.01 0.01 74 1012.5
20260903022401 76 161 1.7 3.5 0.00 0.01 0.01 74 1012.5
20260903022306 76 161 1.7 3.5 0.00 0.01 0.01 74 1012.5
20260903022230 76 161 1.7 3.5 0.00 0.01 0.01 73 1012.5
20260903022114 76 160 1.7 2.6 0.00 0.01 0.01 73 1012.5
20260903022019 76 160 1.7 4.3 0.00 0.01 0.01 73 1012.5
20260903021903 76 160 1.7 4.3 0.00 0.01 0.01 73 1012.4
20260903021811 76 160 1.7 4.3 0.00 0.01 0.01 73 1012.4
20260903021716 76 159 1.7 4.3 0.00 0.01 0.01 73 1012.5
20260903021600 76 159 1.7 4.3 0.00 0.01 0.01 73 1012.4
20260903021525 76 159 1.7 4.3 0.00 0.01 0.01 73 1012.5
20260903021409 76 159 1.7 4.3 0.00 0.01 0.01 73 1012.5
20260903021334 76 159 1.7 4.3 0.00 0.01 0.01 73 1012.5
20260903021218 76 159 1.7 4.3 0.00 0.01 0.01 73 1012.4
20260903021102 76 165 0.9 4.3 0.00 0.01 0.01 73 1012.5
20260903021010 76 165 0.9 4.3 0.00 0.01 0.01 73 1012.5
20260903020915 76 165 0.9 4.3 0.00 0.01 0.01 73 1012.5
20260903020819 76 165 1.7 4.3 0.00 0.01 0.01 73 1012.5
20260903020657 76 165 2.6 4.3 0.00 0.01 0.01 73 1012.5
20260903020601 76 165 2.6 4.3 0.00 0.01 0.01 73 1012.5
20260903020506 76 164 1.7 4.3 0.00 0.01 0.01 73 1012.6
20260903020355 76 165 1.7 2.6 0.00 0.01 0.01 73 1012.6
20260903020300 76 165 0.9 2.6 0.00 0.01 0.01 73 1012.5
20260903020226 76 165 0.9 2.6 0.00 0.01 0.01 73 1012.5
20260903020110 77 165 0.9 2.6 0.00 0.01 0.01 73 1012.5
20260903020034 77 164 0.9 2.6 0.00 0.01 0.01 72 1012.5
20260903015859 77 164 0.9 2.6 0.00 0.01 0.01 72 1012.4
20260903015803 77 164 0.9 2.6 0.00 0.01 0.01 72 1012.5
20260903015732 77 164 1.7 2.6 0.00 0.01 0.01 72 1012.5
20260903015616 77 164 1.7 2.6 0.00 0.01 0.01 72 1012.4
20260903015540 77 164 1.7 2.6 0.00 0.01 0.01 72 1012.4
20260903015357 77 164 0.9 2.6 0.00 0.01 0.01 72 1012.4
20260903015305 77 164 0.9 2.6 0.00 0.01 0.01 72 1012.5
20260903015207 77 164 0.9 2.6 0.00 0.01 0.01 72 1012.5
20260903015056 77 164 0.9 2.6 0.00 0.01 0.01 71 1012.5
20260903015001 77 164 0.9 2.6 0.00 0.01 0.01 71 1012.4
20260903014906 77 157 1.7 2.6 0.00 0.01 0.01 71 1012.4
20260903014830 78 157 1.7 2.6 0.00 0.01 0.01 71 1012.4
20260903014714 78 157 1.7 2.6 0.00 0.01 0.01 71 1012.4
20260903014600 78 156 0.9 2.6 0.00 0.01 0.01 71 1012.4
20260903014504 78 156 0.9 2.6 0.00 0.01 0.01 71 1012.3
20260903014412 78 156 0.9 2.6 0.00 0.01 0.01 71 1012.3
20260903014317 78 156 0.9 2.6 0.00 0.01 0.01 71 1012.3
20260903014155 78 156 0.0 2.6 0.00 0.01 0.01 70 1012.3
20260903014100 78 156 0.9 4.3 0.00 0.01 0.01 70 1012.3
20260903014004 78 156 0.9 4.3 0.00 0.01 0.01 70 1012.2
20260903013908 78 156 1.7 4.3 0.00 0.01 0.01 70 1012.2
20260903013817 78 157 1.7 4.3 0.00 0.01 0.01 70 1012.2
20260903013655 78 157 0.9 4.3 0.00 0.01 0.01 70 1012.2
20260903013600 78 157 1.7 4.3 0.00 0.01 0.01 70 1012.2
20260903013524 78 157 1.7 4.3 0.00 0.01 0.01 70 1012.2
20260903013408 78 157 1.7 4.3 0.00 0.01 0.01 70 1012.2
20260903013313 78 157 1.7 4.3 0.00 0.01 0.01 70 1012.1
20260903013203 78 156 1.7 4.3 0.00 0.01 0.01 70 1012.1
20260903013107 78 157 1.7 4.3 0.00 0.01 0.01 70 1012.1
20260903013012 78 157 2.6 4.3 0.00 0.01 0.01 70 1012.1
20260903012856 78 155 2.6 4.3 0.00 0.01 0.01 70 1012.1
20260903012802 78 155 1.7 4.3 0.00 0.01 0.01 70 1012.1
20260903012706 78 157 1.7 4.3 0.00 0.01 0.01 70 1012.1
20260903012555 78 157 1.7 4.3 0.00 0.01 0.01 69 1012.1
20260903012500 79 157 2.6 4.3 0.00 0.01 0.01 69 1012.1
20260903012425 79 157 1.7 4.3 0.00 0.01 0.01 69 1012.0
20260903012308 79 156 1.7 2.6 0.00 0.01 0.01 69 1012.0
20260903012213 79 155 1.7 2.6 0.00 0.01 0.01 69 1012.0
20260903012059 79 155 1.7 2.6 0.00 0.01 0.01 69 1012.1
20260903012007 79 155 1.7 2.6 0.00 0.01 0.01 69 1012.1
20260903011911 79 155 1.7 2.6 0.00 0.01 0.01 69 1012.1
20260903011815 79 155 0.9 2.6 0.00 0.01 0.01 69 1012.1
20260903011719 79 155 0.9 2.6 0.00 0.01 0.01 69 1012.0
20260903011602 79 155 0.9 2.6 0.00 0.01 0.01 69 1012.1
20260903011508 79 155 0.9 2.6 0.00 0.01 0.01 68 1012.1
20260903011356 79 155 0.9 2.6 0.00 0.01 0.01 68 1012.0
20260903011321 79 155 0.0 2.6 0.00 0.01 0.01 68 1012.0
20260903011159 79 155 0.9 2.6 0.00 0.01 0.01 68 1012.1
20260903011103 79 155 0.9 2.6 0.00 0.01 0.01 68 1012.1
20260903011008 79 155 0.9 2.6 0.00 0.01 0.01 68 1011.9
20260903010912 79 156 0.9 2.6 0.00 0.01 0.01 68 1011.9
20260903010801 80 156 1.7 2.6 0.00 0.01 0.01 68 1011.9
20260903010706 80 156 1.7 2.6 0.00 0.01 0.01 67 1011.9
20260903010611 80 156 0.9 2.6 0.00 0.01 0.01 68 1011.9
20260903010456 80 156 1.7 2.6 0.00 0.01 0.01 67 1011.9
20260903010421 80 156 1.7 2.6 0.00 0.01 0.01 67 1011.9
20260903010325 80 157 0.9 1.7 0.00 0.01 0.01 67 1011.8
20260903010209 80 157 0.9 1.7 0.00 0.01 0.01 67 1011.8
20260903010117 80 157 0.9 2.6 0.00 0.01 0.01 67 1011.9
20260903005955 80 157 0.9 4.3 0.00 0.01 0.01 67 1011.9
20260903005920 80 157 0.9 4.3 0.00 0.01 0.01 67 1011.9
20260903005824 80 157 0.9 4.3 0.00 0.01 0.01 67 1011.9
20260903005728 80 157 0.9 4.3 0.00 0.01 0.01 66 1011.9
20260903005611 80 157 0.9 4.3 0.00 0.01 0.01 66 1011.9
20260903005516 80 157 0.9 4.3 0.00 0.01 0.01 66 1011.9
20260903005400 81 157 1.7 4.3 0.00 0.01 0.01 66 1011.9
20260903005308 81 157 2.6 4.3 0.00 0.01 0.01 66 1011.9
20260903005212 81 157 1.7 4.3 0.00 0.01 0.01 66 1011.9
20260903005117 81 158 1.7 4.3 0.00 0.01 0.01 66 1011.9
20260903004955 81 161 0.9 4.3 0.00 0.01 0.01 66 1011.9
20260903004859 81 161 1.7 4.3 0.00 0.01 0.01 66 1011.9
20260903004804 81 161 1.7 4.3 0.00 0.01 0.01 65 1011.9
20260903004729 81 161 1.7 4.3 0.00 0.01 0.01 65 1011.9
20260903004617 81 161 1.7 4.3 0.00 0.01 0.01 65 1011.9
20260903004455 81 161 1.7 4.3 0.00 0.01 0.01 65 1011.9
20260903004400 81 161 1.7 4.3 0.00 0.01 0.01 65 1011.9
20260903004325 81 161 1.7 4.3 0.00 0.01 0.01 65 1011.9
20260903004209 81 160 0.9 4.3 0.00 0.01 0.01 65 1011.9
20260903004114 81 160 1.7 4.3 0.00 0.01 0.01 65 1011.9
20260903004023 81 160 1.7 4.3 0.00 0.01 0.01 65 1012.0
20260903003927 81 161 1.7 4.3 0.00 0.01 0.01 64 1012.1
20260903003810 81 161 1.7 4.3 0.00 0.01 0.01 64 1012.1
20260903003735 82 161 1.7 4.3 0.00 0.01 0.01 64 1012.0
20260903003558 82 161 1.7 3.5 0.00 0.01 0.01 64 1012.0
20260903003503 82 161 0.9 2.6 0.00 0.01 0.01 64 1012.0
20260903003428 82 161 0.9 2.6 0.00 0.01 0.01 64 1012.0
20260903003255 82 161 0.9 2.6 0.00 0.01 0.01 64 1012.0
20260903003200 82 161 1.7 2.6 0.00 0.01 0.01 64 1012.0
20260903003105 82 161 0.9 4.3 0.00 0.01 0.01 64 1012.0
20260903003030 82 161 0.9 4.3 0.00 0.01 0.01 64 1012.0
20260903002934 82 161 0.9 4.3 0.00 0.01 0.01 64 1012.0
20260903002758 82 161 0.9 4.3 0.00 0.01 0.01 64 1012.0
20260903002701 82 160 1.7 4.3 0.00 0.01 0.01 64 1011.9
20260903002610 82 160 1.7 4.3 0.00 0.01 0.01 64 1011.9
20260903002455 82 161 1.7 4.3 0.00 0.01 0.01 63 1012.0
20260903002359 82 160 2.6 4.3 0.00 0.01 0.01 63 1012.0
20260903002306 82 160 2.6 4.3 0.00 0.01 0.01 63 1012.0
20260903002209 82 161 1.7 4.3 0.00 0.01 0.01 63 1012.0
20260903002115 82 159 0.9 4.3 0.00 0.01 0.01 63 1012.0
20260903002003 82 159 0.9 4.3 0.00 0.01 0.01 63 1012.0
20260903001927 83 159 0.9 4.3 0.00 0.01 0.01 63 1012.0
20260903001811 83 159 0.9 4.3 0.00 0.01 0.01 63 1012.0
20260903001656 83 159 1.7 5.2 0.00 0.01 0.01 63 1012.0
20260903001601 83 159 1.7 5.2 0.00 0.01 0.01 63 1011.9
20260903001506 83 159 1.7 5.2 0.00 0.01 0.01 63 1012.0
20260903001431 83 159 1.7 5.2 0.00 0.01 0.01 62 1012.0
20260903001319 83 159 1.7 5.2 0.00 0.01 0.01 62 1011.9
20260903001157 83 159 2.6 5.2 0.00 0.01 0.01 62 1011.9
20260903001102 83 160 2.6 5.2 0.00 0.01 0.01 62 1011.9
20260903001006 83 160 2.6 5.2 0.00 0.01 0.01 62 1011.9
20260903000911 83 160 2.6 5.2 0.00 0.01 0.01 62 1011.9
20260903000800 83 154 2.6 5.2 0.00 0.01 0.01 62 1011.8
20260903000706 83 153 2.6 5.2 0.00 0.01 0.01 62 1011.9
20260903000610 83 169 2.6 5.2 0.00 0.01 0.01 62 1011.9
20260903000514 83 169 3.5 5.2 0.00 0.01 0.01 62 1011.9
20260903000419 83 150 2.6 4.3 0.00 0.01 0.01 62 1011.9
20260903000303 83 151 1.7 5.2 0.00 0.01 0.01 61 1011.9
20260903000208 83 151 1.7 5.2 0.00 0.01 0.01 62 1011.9
20260903000115 83 151 1.7 5.2 0.00 0.01 0.01 62 1011.9
20260903000019 83 151 1.7 5.2 0.00 0.01 0.01 62 1011.9
20260902235857 83 151 1.7 5.2 0.00 0.01 0.01 62 1011.9
20260902235802 83 151 1.7 5.2 0.00 0.01 0.01 61 1011.9
20260902235707 83 151 2.6 5.2 0.00 0.01 0.01 61 1011.9
20260902235556 83 151 2.6 5.2 0.00 0.01 0.01 61 1011.9
20260902235501 83 153 1.7 5.2 0.00 0.01 0.01 62 1011.9
20260902235406 83 147 1.7 3.5 0.00 0.01 0.01 61 1012.0
20260902235311 83 147 0.9 3.5 0.00 0.01 0.01 62 1012.0
20260902235156 84 146 1.7 6.1 0.00 0.01 0.01 62 1012.0
20260902235100 84 146 1.7 6.1 0.00 0.01 0.01 61 1011.9
20260902235008 84 146 1.7 6.1 0.00 0.01 0.01 61 1012.0
20260902234912 84 146 1.7 6.1 0.00 0.01 0.01 61 1012.0
20260902234757 84 146 2.6 6.1 0.00 0.01 0.01 61 1011.9
20260902234722 84 152 1.7 6.1 0.00 0.01 0.01 61 1012.0
20260902234605 84 151 1.7 7.8 0.00 0.01 0.01 61 1011.9
20260902234530 84 150 2.6 7.8 0.00 0.01 0.01 61 1011.9
20260902234413 84 151 3.5 7.8 0.00 0.01 0.01 60 1011.9
20260902234301 84 136 3.5 7.8 0.00 0.01 0.01 61 1011.9
20260902234206 84 144 3.5 7.8 0.00 0.01 0.01 60 1011.9
20260902234111 84 155 2.6 7.8 0.00 0.01 0.01 61 1011.9
20260902233956 84 161 3.5 7.8 0.00 0.01 0.01 61 1012.0
20260902233901 84 161 5.2 7.8 0.00 0.01 0.01 60 1011.9
20260902233806 84 176 4.3 7.8 0.00 0.01 0.01 60 1011.9
20260902233714 84 158 4.3 7.8 0.00 0.01 0.01 60 1011.9
20260902233558 84 167 3.5 6.1 0.00 0.01 0.01 60 1012.0
20260902233503 84 153 3.5 6.1 0.00 0.01 0.01 60 1012.0
20260902233407 84 137 3.5 7.0 0.00 0.01 0.01 60 1012.0
20260902233332 84 163 3.5 7.0 0.00 0.01 0.01 60 1012.0
20260902233156 84 162 2.6 7.0 0.00 0.01 0.01 61 1012.0
20260902233104 84 137 2.6 7.0 0.00 0.01 0.01 60 1012.0
20260902233009 84 136 2.6 7.0 0.00 0.01 0.01 60 1012.0
20260902232914 84 124 2.6 7.0 0.00 0.01 0.01 59 1012.0
20260902232759 84 113 3.5 7.0 0.00 0.01 0.01 60 1012.0
20260902232704 84 165 3.5 7.0 0.00 0.01 0.01 60 1012.0
20260902232609 84 165 3.5 7.0 0.00 0.01 0.01 60 1012.0
20260902232457 84 154 2.6 6.1 0.00 0.01 0.01 60 1012.0
20260902232403 84 155 1.7 6.1 0.00 0.01 0.01 60 1012.0
20260902232307 84 154 2.6 6.1 0.00 0.01 0.01 60 1012.0
20260902232211 84 150 2.6 6.1 0.00 0.01 0.01 60 1012.0
20260902232056 84 144 2.6 6.1 0.00 0.01 0.01 60 1012.0
20260902232005 84 146 3.5 6.1 0.00 0.01 0.01 60 1012.1
20260902231910 84 153 2.6 6.1 0.00 0.01 0.01 60 1012.1
20260902231835 84 167 3.5 6.1 0.00 0.01 0.01 60 1012.1
20260902231718 84 168 3.5 6.1 0.00 0.01 0.01 60 1012.0
20260902231557 84 154 2.6 6.1 0.00 0.01 0.01 60 1012.1
20260902231502 84 153 1.7 6.1 0.00 0.01 0.01 60 1012.0
20260902231406 85 155 1.7 6.1 0.00 0.01 0.01 59 1012.0
20260902231255 85 155 1.7 6.1 0.00 0.01 0.01 60 1012.0
20260902231200 85 155 1.7 7.0 0.00 0.01 0.01 60 1012.0
20260902231105 85 155 2.6 7.0 0.00 0.01 0.01 60 1012.0
20260902231008 85 155 3.5 7.0 0.00 0.01 0.01 59 1012.0
20260902230912 85 160 3.5 7.0 0.00 0.01 0.01 60 1012.0
20260902230801 85 166 2.6 7.0 0.00 0.01 0.01 61 1012.1
20260902230706 85 166 3.5 7.0 0.00 0.01 0.01 60 1012.1
20260902230611 85 167 3.5 7.0 0.00 0.01 0.01 59 1012.1
20260902230455 85 163 4.3 7.0 0.00 0.01 0.01 59 1012.0
20260902230421 85 159 4.3 7.0 0.00 0.01 0.01 59 1012.0
20260902230258 85 157 3.5 5.2 0.00 0.01 0.01 59 1012.0
20260902230223 85 142 3.5 5.2 0.00 0.01 0.01 59 1012.1
20260902230127 85 153 3.5 5.2 0.00 0.01 0.01 59 1012.1
20260902225955 85 146 3.5 5.2 0.00 0.01 0.01 59 1012.0
20260902225918 85 184 3.5 7.0 0.00 0.01 0.01 59 1012.0
20260902225819 85 144 1.7 7.0 0.00 0.01 0.01 60 1012.2
20260902225703 85 146 2.6 7.0 0.00 0.01 0.01 60 1012.1
20260902225608 85 146 3.5 7.0 0.00 0.01 0.01 59 1012.1
20260902225513 85 114 3.5 7.0 0.00 0.01 0.01 59 1012.1
20260902225403 85 123 2.6 8.7 0.00 0.01 0.01 59 1012.1
20260902225327 85 166 3.5 8.7 0.00 0.01 0.01 60 1012.1
20260902225210 85 149 3.5 8.7 0.00 0.01 0.01 59 1012.1
20260902225055 85 96 3.5 8.7 0.00 0.01 0.01 59 1012.1
20260902225021 85 155 3.5 8.7 0.00 0.01 0.01 60 1012.1
20260902224904 85 127 2.6 8.7 0.00 0.01 0.01 60 1012.1
20260902224829 85 124 3.5 8.7 0.00 0.01 0.01 59 1012.1
20260902224718 85 125 5.2 8.7 0.00 0.01 0.01 58 1012.1
20260902224556 85 138 5.2 9.6 0.00 0.01 0.01 59 1012.1
20260902224501 85 113 3.5 9.6 0.00 0.01 0.01 59 1012.0
20260902224406 85 144 2.6 9.6 0.00 0.01 0.01 58 1012.0
20260902224311 85 133 2.6 9.6 0.00 0.01 0.01 59 1012.0
20260902224235 85 132 2.6 9.6 0.00 0.01 0.01 59 1012.0
20260902224102 85 115 2.6 9.6 0.00 0.01 0.01 58 1012.0
20260902224007 85 121 2.6 9.6 0.00 0.01 0.01 59 1012.0
20260902223912 85 137 5.2 9.6 0.00 0.01 0.01 59 1012.1
20260902223817 85 123 6.1 9.6 0.00 0.01 0.01 58 1012.1
20260902223741 85 153 4.3 9.6 0.00 0.01 0.01 58 1012.0
20260902223558 85 177 2.6 6.1 0.00 0.01 0.01 58 1012.0
20260902223503 85 176 3.5 7.0 0.00 0.01 0.01 58 1012.0
20260902223412 85 175 4.3 7.0 0.00 0.01 0.01 58 1012.0
20260902223257 86 156 4.3 7.0 0.00 0.01 0.01 59 1012.1
20260902223203 86 180 3.5 7.0 0.00 0.01 0.01 58 1012.0
20260902223107 85 155 4.3 7.0 0.00 0.01 0.01 59 1012.0
20260902223012 86 171 5.2 7.0 0.00 0.01 0.01 58 1012.1
20260902222916 85 167 4.3 7.0 0.00 0.01 0.01 59 1012.0
20260902222804 85 180 4.3 7.0 0.00 0.01 0.01 59 1012.1
20260902222706 85 156 4.3 7.0 0.00 0.01 0.01 59 1011.9
20260902222611 85 177 4.3 7.8 0.00 0.01 0.01 59 1011.9
20260902222516 85 165 3.5 7.8 0.00 0.01 0.01 59 1012.0
20260902222400 85 165 3.5 7.8 0.00 0.01 0.01 60 1012.1
20260902222306 85 174 3.5 7.8 0.00 0.01 0.01 59 1012.1
20260902222229 85 167 5.2 7.8 0.00 0.01 0.01 59 1012.1
20260902222057 85 194 4.3 7.8 0.00 0.01 0.01 59 1012.1
20260902222001 85 136 2.6 7.0 0.00 0.01 0.01 59 1012.0
20260902221906 85 115 2.6 7.0 0.00 0.01 0.01 59 1012.0
20260902221831 85 136 2.6 7.0 0.00 0.01 0.01 59 1012.0
20260902221655 85 127 3.5 7.0 0.00 0.01 0.01 59 1012.0
20260902221600 85 124 3.5 7.0 0.00 0.01 0.01 58 1012.1
20260902221525 85 130 3.5 8.7 0.00 0.01 0.01 59 1012.0
20260902221413 85 125 3.5 8.7 0.00 0.01 0.01 58 1012.0
20260902221318 85 125 3.5 8.7 0.00 0.01 0.01 58 1012.0
20260902221156 85 121 4.3 8.7 0.00 0.01 0.01 58 1012.1
20260902221100 85 140 5.2 8.7 0.00 0.01 0.01 58 1012.1
20260902221005 86 124 5.2 8.7 0.00 0.01 0.01 58 1012.1
20260902220930 86 123 5.2 8.7 0.00 0.01 0.01 58 1012.1
20260902220818 86 119 5.2 8.7 0.00 0.01 0.01 58 1012.1
20260902220656 86 167 5.2 7.8 0.00 0.01 0.01 58 1012.1
20260902220621 86 169 4.3 6.1 0.00 0.01 0.01 57 1012.1